Time,TemperatureF,DewpointF,PressureIn,WindDirection,WindDirectionDegrees,WindSpeedMPH,WindSpeedGustMPH,Humidity,HourlyPrecipIn,Conditions,Clouds,dailyrainin,SoftwareType,DateUTC
2013-01-29 00:00:00,31.6,30.1,29.47,SSW,202,12.8,12.8,94,0.00,,,0.00,VWS V14.01,2013-01-29 06:00:00,
2013-01-29 00:02:00,31.5,29.9,29.47,ENE,68,0.0,4.3,94,0.00,,,0.00,VWS V14.01,2013-01-29 06:02:00,
2013-01-29 00:04:00,31.5,29.9,29.47,SSW,202,12.8,12.8,94,0.00,,,0.00,VWS V14.01,2013-01-29 06:04:00,
2013-01-29 00:06:00,31.5,29.9,29.47,SSW,202,12.8,12.8,94,0.00,,,0.00,VWS V14.01,2013-01-29 06:06:00,
2013-01-29 00:08:00,31.5,29.9,29.47,ENE,68,0.0,4.3,94,0.00,,,0.00,VWS V14.01,2013-01-29 06:08:00,
2013-01-29 00:10:00,31.5,29.9,29.47,SSW,202,12.8,12.8,94,0.00,,,0.00,VWS V14.01,2013-01-29 06:10:00,
2013-01-29 00:12:00,31.5,29.9,29.47,SSW,202,12.8,12.8,94,0.00,,,0.00,VWS V14.01,2013-01-29 06:12:00,
2013-01-29 00:14:00,31.5,29.9,29.44,East,90,3.4,3.4,94,0.00,,,0.00,VWS V14.01,2013-01-29 06:14:00,
2013-01-29 00:16:00,31.5,29.9,29.47,SSW,202,12.8,12.8,94,0.00,,,0.00,VWS V14.01,2013-01-29 06:16:00,
2013-01-29 00:18:00,31.5,29.9,29.47,SSW,202,12.8,12.8,94,0.00,,,0.00,VWS V14.01,2013-01-29 06:18:00,
2013-01-29 00:20:00,31.5,29.9,29.47,SSW,202,12.8,12.8,94,0.00,,,0.00,VWS V14.01,2013-01-29 06:20:00,
2013-01-29 00:22:00,31.5,29.9,29.47,SSW,202,12.8,12.8,94,0.00,,,0.00,VWS V14.01,2013-01-29 06:22:00,
2013-01-29 00:24:00,31.5,29.9,29.47,SSW,202,12.8,12.8,94,0.00,,,0.00,VWS V14.01,2013-01-29 06:24:00,
2013-01-29 00:26:00,31.5,29.9,29.44,SSW,202,12.8,12.8,94,0.00,,,0.00,VWS V14.01,2013-01-29 06:26:00,
2013-01-29 00:28:00,31.5,29.9,29.44,ENE,68,0.0,4.3,94,0.00,,,0.00,VWS V14.01,2013-01-29 06:28:00,
2013-01-29 00:30:00,31.5,29.7,29.44,NNE,22,6.0,6.0,93,0.00,,,0.00,VWS V14.01,2013-01-29 06:30:00,
2013-01-29 00:32:00,31.5,29.9,29.44,ENE,68,0.0,4.3,94,0.00,,,0.00,VWS V14.01,2013-01-29 06:32:00,
2013-01-29 00:34:00,31.5,29.9,29.44,ENE,68,0.0,4.3,94,0.00,,,0.00,VWS V14.01,2013-01-29 06:34:00,
2013-01-29 00:36:00,31.5,29.9,29.44,ENE,68,0.0,4.3,94,0.00,,,0.00,VWS V14.01,2013-01-29 06:36:00,
2013-01-29 00:38:00,31.5,29.9,29.44,East,90,0.0,4.3,94,0.00,,,0.00,VWS V14.01,2013-01-29 06:38:00,
2013-01-29 00:40:00,31.5,29.9,29.44,ENE,68,0.0,4.3,94,0.00,,,0.00,VWS V14.01,2013-01-29 06:40:00,
2013-01-29 00:42:00,31.5,29.9,29.44,ENE,68,0.0,4.3,94,0.00,,,0.00,VWS V14.01,2013-01-29 06:42:00,
2013-01-29 00:44:00,31.5,29.9,29.44,ENE,68,0.0,4.3,94,0.00,,,0.00,VWS V14.01,2013-01-29 06:44:00,
2013-01-29 00:46:00,31.5,29.9,29.44,ENE,68,0.0,4.3,94,0.00,,,0.00,VWS V14.01,2013-01-29 06:46:00,
2013-01-29 00:48:00,31.5,29.9,29.44,ENE,68,0.0,4.3,94,0.00,,,0.00,VWS V14.01,2013-01-29 06:48:00,
2013-01-29 00:50:00,31.5,29.9,29.44,ENE,68,0.0,4.3,94,0.00,,,0.00,VWS V14.01,2013-01-29 06:50:00,
2013-01-29 00:52:00,31.5,29.9,29.44,ENE,68,0.0,4.3,94,0.00,,,0.00,VWS V14.01,2013-01-29 06:52:00,
2013-01-29 00:54:00,31.5,29.9,29.44,ENE,68,0.0,4.3,94,0.00,,,0.00,VWS V14.01,2013-01-29 06:54:00,
2013-01-29 00:56:00,31.5,29.9,29.47,ENE,68,0.0,4.3,94,0.00,,,0.00,VWS V14.01,2013-01-29 06:56:00,
2013-01-29 00:58:00,31.5,29.9,29.47,ENE,68,0.0,4.3,94,0.00,,,0.00,VWS V14.01,2013-01-29 06:58:00,
2013-01-29 01:00:00,31.5,29.9,29.47,ENE,68,0.0,4.3,94,0.00,,,0.00,VWS V14.01,2013-01-29 07:00:00,
2013-01-29 01:02:00,31.5,29.9,29.47,ENE,68,0.0,4.3,94,0.00,,,0.00,VWS V14.01,2013-01-29 07:02:00,
2013-01-29 01:04:00,31.5,29.7,29.44,WSW,248,0.0,0.0,93,0.00,,,0.00,VWS V14.01,2013-01-29 07:04:00,
2013-01-29 01:06:00,31.5,29.9,29.47,ESE,112,3.4,4.3,94,0.00,,,0.00,VWS V14.01,2013-01-29 07:06:00,
2013-01-29 01:08:00,31.5,29.9,29.47,ENE,68,0.0,4.3,94,0.00,,,0.00,VWS V14.01,2013-01-29 07:08:00,
2013-01-29 01:10:00,31.5,29.9,29.44,ENE,68,4.0,4.0,94,0.00,,,0.00,VWS V14.01,2013-01-29 07:10:00,
2013-01-29 01:12:00,31.5,29.9,29.44,ENE,68,7.4,7.4,94,0.00,,,0.00,VWS V14.01,2013-01-29 07:12:00,
2013-01-29 01:14:00,31.5,29.9,29.44,East,90,3.4,3.4,94,0.00,,,0.00,VWS V14.01,2013-01-29 07:14:00,
2013-01-29 01:16:00,31.5,29.9,29.44,ENE,68,10.1,10.1,94,0.00,,,0.00,VWS V14.01,2013-01-29 07:16:00,
2013-01-29 01:18:00,31.5,29.7,29.44,East,90,0.0,3.4,93,0.00,,,0.00,VWS V14.01,2013-01-29 07:18:00,
2013-01-29 01:20:00,31.5,29.7,29.44,NE,45,3.4,3.4,93,0.00,,,0.00,VWS V14.01,2013-01-29 07:20:00,
2013-01-29 01:22:00,31.5,29.7,29.44,NE,45,4.0,4.0,93,0.00,,,0.00,VWS V14.01,2013-01-29 07:22:00,
2013-01-29 01:24:00,31.5,29.7,29.44,ENE,68,0.0,3.4,93,0.00,,,0.00,VWS V14.01,2013-01-29 07:24:00,
2013-01-29 01:26:00,31.5,29.7,29.44,ENE,68,0.0,2.5,93,0.00,,,0.00,VWS V14.01,2013-01-29 07:26:00,
2013-01-29 01:27:00,31.5,29.7,29.44,ENE,68,7.4,7.4,93,0.00,,,0.00,VWS V14.01,2013-01-29 07:27:00,
2013-01-29 01:28:00,31.5,29.7,29.44,ENE,68,4.0,4.0,93,0.00,,,0.00,VWS V14.01,2013-01-29 07:28:00,
2013-01-29 01:30:00,31.5,29.7,29.44,NNE,22,6.0,6.0,93,0.00,,,0.00,VWS V14.01,2013-01-29 07:30:00,
2013-01-29 01:32:00,31.5,29.7,29.44,NE,45,4.0,4.0,93,0.00,,,0.00,VWS V14.01,2013-01-29 07:32:00,
2013-01-29 01:34:00,31.5,29.7,29.44,NE,45,4.0,4.0,93,0.00,,,0.00,VWS V14.01,2013-01-29 07:34:00,
2013-01-29 01:36:00,31.5,29.7,29.44,NE,45,2.7,2.7,93,0.00,,,0.00,VWS V14.01,2013-01-29 07:36:00,
2013-01-29 01:37:00,31.5,29.7,29.44,NE,45,0.0,0.0,93,0.00,,,0.00,VWS V14.01,2013-01-29 07:37:00,
2013-01-29 01:38:00,31.5,29.7,29.44,NE,45,0.0,1.1,93,0.00,,,0.00,VWS V14.01,2013-01-29 07:38:00,
2013-01-29 01:40:00,31.5,29.7,29.44,NNW,338,0.0,0.0,93,0.00,,,0.00,VWS V14.01,2013-01-29 07:40:00,
2013-01-29 01:42:00,31.5,29.7,29.44,NNE,22,0.0,0.0,93,0.00,,,0.00,VWS V14.01,2013-01-29 07:42:00,
2013-01-29 01:44:00,31.5,29.7,29.44,NNE,22,0.0,0.0,93,0.00,,,0.00,VWS V14.01,2013-01-29 07:44:00,
2013-01-29 01:46:00,31.5,29.7,29.44,NNW,338,0.0,0.9,93,0.00,,,0.00,VWS V14.01,2013-01-29 07:46:00,
2013-01-29 01:47:00,31.5,29.7,29.44,NE,45,4.7,4.7,93,0.00,,,0.00,VWS V14.01,2013-01-29 07:47:00,
2013-01-29 01:48:00,31.5,29.7,29.44,NNE,22,4.0,4.0,93,0.00,,,0.00,VWS V14.01,2013-01-29 07:48:00,
2013-01-29 01:50:00,31.5,29.7,29.44,NE,45,0.0,1.6,93,0.00,,,0.00,VWS V14.01,2013-01-29 07:50:00,
2013-01-29 01:51:00,31.5,29.7,29.44,East,90,0.0,0.0,93,0.00,,,0.00,VWS V14.01,2013-01-29 07:51:00,
2013-01-29 01:52:00,31.5,29.7,29.44,East,90,0.0,0.0,93,0.00,,,0.00,VWS V14.01,2013-01-29 07:52:00,
2013-01-29 01:54:00,31.5,29.7,29.44,East,90,0.0,0.0,93,0.00,,,0.00,VWS V14.01,2013-01-29 07:54:00,
2013-01-29 01:56:00,31.5,29.7,29.44,East,90,0.0,0.0,93,0.00,,,0.00,VWS V14.01,2013-01-29 07:56:00,
2013-01-29 01:57:00,31.5,29.7,29.44,WSW,248,0.0,0.0,93,0.00,,,0.00,VWS V14.01,2013-01-29 07:57:00,
2013-01-29 01:58:00,31.5,29.7,29.44,WSW,248,0.0,0.0,93,0.00,,,0.00,VWS V14.01,2013-01-29 07:58:00,
2013-01-29 02:00:00,31.5,29.7,29.44,WSW,248,0.0,0.0,93,0.00,,,0.00,VWS V14.01,2013-01-29 08:00:00,
2013-01-29 02:01:00,31.5,29.7,29.44,WSW,248,0.0,0.0,93,0.00,,,0.00,VWS V14.01,2013-01-29 08:01:00,
2013-01-29 02:02:00,31.5,29.7,29.44,WSW,248,0.0,0.0,93,0.00,,,0.00,VWS V14.01,2013-01-29 08:02:00,
2013-01-29 02:04:00,31.5,29.7,29.44,WSW,248,0.0,0.0,93,0.00,,,0.00,VWS V14.01,2013-01-29 08:04:00,
2013-01-29 02:06:00,31.5,29.7,29.44,WSW,248,0.0,0.0,93,0.00,,,0.00,VWS V14.01,2013-01-29 08:06:00,
2013-01-29 02:08:00,31.5,29.7,29.44,WSW,248,0.0,0.0,93,0.00,,,0.00,VWS V14.01,2013-01-29 08:08:00,
2013-01-29 02:10:00,31.5,29.7,29.44,WSW,248,0.0,0.0,93,0.00,,,0.00,VWS V14.01,2013-01-29 08:10:00,
2013-01-29 02:11:00,31.5,29.7,29.44,WSW,248,0.0,0.0,93,0.00,,,0.00,VWS V14.01,2013-01-29 08:11:00,
2013-01-29 02:12:00,31.5,29.7,29.44,WSW,248,0.0,0.0,93,0.00,,,0.00,VWS V14.01,2013-01-29 08:12:00,
2013-01-29 02:14:00,31.5,29.7,29.44,WSW,248,0.0,0.0,93,0.00,,,0.00,VWS V14.01,2013-01-29 08:14:00,
2013-01-29 02:16:00,31.5,29.7,29.44,NE,45,0.0,2.2,93,0.00,,,0.00,VWS V14.01,2013-01-29 08:16:00,
2013-01-29 02:18:00,31.5,29.7,29.44,NE,45,6.7,6.7,93,0.00,,,0.00,VWS V14.01,2013-01-29 08:18:00,
2013-01-29 02:20:00,31.5,29.7,29.44,NNE,22,0.0,0.0,93,0.00,,,0.00,VWS V14.01,2013-01-29 08:20:00,
2013-01-29 02:21:00,31.5,29.7,29.44,NNW,338,0.0,0.0,93,0.00,,,0.00,VWS V14.01,2013-01-29 08:21:00,
2013-01-29 02:22:00,31.5,29.7,29.44,NNW,338,0.0,2.7,93,0.00,,,0.00,VWS V14.01,2013-01-29 08:22:00,
2013-01-29 02:24:00,31.5,29.7,29.44,NNW,338,0.0,0.0,93,0.00,,,0.00,VWS V14.01,2013-01-29 08:24:00,
2013-01-29 02:26:00,31.5,29.7,29.44,NW,315,0.0,0.0,93,0.00,,,0.00,VWS V14.01,2013-01-29 08:26:00,
2013-01-29 02:28:00,31.5,29.7,29.44,NW,315,0.0,0.0,93,0.00,,,0.00,VWS V14.01,2013-01-29 08:28:00,
2013-01-29 02:30:00,31.5,29.7,29.44,NW,315,0.0,0.0,93,0.00,,,0.00,VWS V14.01,2013-01-29 08:30:00,
2013-01-29 02:31:00,31.5,29.7,29.44,NNW,338,0.0,0.0,93,0.00,,,0.00,VWS V14.01,2013-01-29 08:31:00,
2013-01-29 02:32:00,31.5,29.7,29.44,NW,315,2.7,2.7,93,0.00,,,0.00,VWS V14.01,2013-01-29 08:32:00,
2013-01-29 02:34:00,31.5,29.7,29.44,NNW,338,0.0,0.0,93,0.00,,,0.00,VWS V14.01,2013-01-29 08:34:00,
2013-01-29 02:36:00,31.5,29.7,29.44,NW,315,0.0,1.3,93,0.00,,,0.00,VWS V14.01,2013-01-29 08:36:00,
2013-01-29 02:38:00,31.5,29.7,29.44,NW,315,0.0,1.3,93,0.00,,,0.00,VWS V14.01,2013-01-29 08:38:00,
2013-01-29 02:40:00,31.5,29.7,29.44,West,270,2.7,2.7,93,0.00,,,0.00,VWS V14.01,2013-01-29 08:40:00,
2013-01-29 02:41:00,31.5,29.7,29.47,West,270,0.0,0.0,93,0.00,,,0.00,VWS V14.01,2013-01-29 08:41:00,
2013-01-29 02:42:00,31.5,29.7,29.47,West,270,0.0,1.3,93,0.00,,,0.00,VWS V14.01,2013-01-29 08:42:00,
2013-01-29 02:44:00,31.5,29.7,29.47,West,270,0.0,0.0,93,0.00,,,0.00,VWS V14.01,2013-01-29 08:44:00,
2013-01-29 02:46:00,31.5,29.7,29.47,NNE,22,0.0,0.0,93,0.00,,,0.00,VWS V14.01,2013-01-29 08:46:00,
2013-01-29 02:48:00,31.5,29.7,29.47,NNE,22,0.0,0.0,93,0.00,,,0.00,VWS V14.01,2013-01-29 08:48:00,
2013-01-29 02:50:00,31.5,29.7,29.47,SSW,202,0.0,0.0,93,0.00,,,0.00,VWS V14.01,2013-01-29 08:50:00,
2013-01-29 02:51:00,31.5,29.7,29.47,NNW,338,3.4,3.4,93,0.00,,,0.00,VWS V14.01,2013-01-29 08:51:00,
2013-01-29 02:52:00,31.5,29.7,29.47,SW,225,0.0,2.0,93,0.00,,,0.00,VWS V14.01,2013-01-29 08:52:00,
2013-01-29 02:54:00,31.5,29.7,29.47,NNW,338,3.4,3.4,93,0.00,,,0.00,VWS V14.01,2013-01-29 08:54:00,
2013-01-29 02:56:00,31.5,29.7,29.44,NE,45,6.0,6.0,93,0.00,,,0.00,VWS V14.01,2013-01-29 08:56:00,
2013-01-29 02:58:00,31.5,29.7,29.44,North,0,0.0,1.6,93,0.00,,,0.00,VWS V14.01,2013-01-29 08:58:00,
2013-01-29 03:00:00,31.5,29.7,29.44,NNE,22,2.7,2.7,93,0.00,,,0.00,VWS V14.01,2013-01-29 09:00:00,
2013-01-29 03:01:00,31.5,29.7,29.44,NNE,22,0.0,0.0,93,0.00,,,0.00,VWS V14.01,2013-01-29 09:01:00,
2013-01-29 03:02:00,31.5,29.7,29.44,NNE,22,0.0,0.0,93,0.00,,,0.00,VWS V14.01,2013-01-29 09:02:00,
2013-01-29 03:04:00,31.5,29.7,29.44,NNE,22,0.0,0.0,93,0.00,,,0.00,VWS V14.01,2013-01-29 09:04:00,
2013-01-29 03:06:00,31.5,29.7,29.44,NE,45,0.0,2.0,93,0.00,,,0.00,VWS V14.01,2013-01-29 09:06:00,
2013-01-29 03:08:00,31.5,29.7,29.44,NE,45,2.7,2.7,93,0.00,,,0.00,VWS V14.01,2013-01-29 09:08:00,
2013-01-29 03:10:00,31.5,29.7,29.44,NE,45,0.0,0.0,93,0.00,,,0.00,VWS V14.01,2013-01-29 09:10:00,
2013-01-29 03:11:00,31.5,29.7,29.44,ENE,68,0.0,0.0,93,0.00,,,0.00,VWS V14.01,2013-01-29 09:11:00,
2013-01-29 03:12:00,31.5,29.7,29.44,ENE,68,0.0,0.0,93,0.00,,,0.00,VWS V14.01,2013-01-29 09:12:00,
2013-01-29 03:14:00,31.5,29.7,29.44,ENE,68,0.0,0.0,93,0.00,,,0.00,VWS V14.01,2013-01-29 09:14:00,
2013-01-29 03:16:00,31.5,29.7,29.44,ENE,68,0.0,0.0,93,0.00,,,0.00,VWS V14.01,2013-01-29 09:16:00,
2013-01-29 03:18:00,31.5,29.7,29.44,ENE,68,0.0,0.0,93,0.00,,,0.00,VWS V14.01,2013-01-29 09:18:00,
2013-01-29 03:20:00,31.5,29.7,29.44,ENE,68,0.0,0.0,93,0.00,,,0.00,VWS V14.01,2013-01-29 09:20:00,
2013-01-29 03:21:00,31.5,29.7,29.44,ENE,68,0.0,0.0,93,0.00,,,0.00,VWS V14.01,2013-01-29 09:21:00,
2013-01-29 03:22:00,31.5,29.7,29.44,ENE,68,0.0,0.0,93,0.00,,,0.00,VWS V14.01,2013-01-29 09:22:00,
2013-01-29 03:24:00,31.5,29.7,29.44,ENE,68,0.0,0.0,93,0.00,,,0.00,VWS V14.01,2013-01-29 09:24:00,
2013-01-29 03:26:00,31.5,29.7,29.41,NE,45,0.0,0.0,93,0.00,,,0.00,VWS V14.01,2013-01-29 09:26:00,
2013-01-29 03:28:00,31.5,29.7,29.41,NE,45,0.0,0.9,93,0.00,,,0.00,VWS V14.01,2013-01-29 09:28:00,
2013-01-29 03:30:00,31.5,29.7,29.41,NE,45,0.0,0.0,93,0.00,,,0.00,VWS V14.01,2013-01-29 09:30:00,
2013-01-29 03:31:00,31.5,29.7,29.41,NE,45,0.0,0.0,93,0.00,,,0.00,VWS V14.01,2013-01-29 09:31:00,
2013-01-29 03:32:00,31.5,29.7,29.41,NE,45,0.0,0.0,93,0.00,,,0.00,VWS V14.01,2013-01-29 09:32:00,
2013-01-29 03:34:00,31.5,29.7,29.41,NE,45,0.0,0.0,93,0.00,,,0.00,VWS V14.01,2013-01-29 09:34:00,
2013-01-29 03:36:00,31.5,29.7,29.41,NNE,22,0.0,0.0,93,0.00,,,0.00,VWS V14.01,2013-01-29 09:36:00,
2013-01-29 03:38:00,31.5,29.7,29.41,NNE,22,0.0,0.0,93,0.00,,,0.00,VWS V14.01,2013-01-29 09:38:00,
2013-01-29 03:40:00,31.3,29.5,29.41,NNE,22,4.0,4.0,93,0.00,,,0.00,VWS V14.01,2013-01-29 09:40:00,
2013-01-29 03:41:00,31.3,29.5,29.41,NNW,338,4.7,4.7,93,0.00,,,0.00,VWS V14.01,2013-01-29 09:41:00,
2013-01-29 03:42:00,31.3,29.5,29.41,NNW,338,0.0,1.3,93,0.00,,,0.00,VWS V14.01,2013-01-29 09:42:00,
2013-01-29 03:44:00,31.3,29.5,29.41,NNW,338,4.0,4.0,93,0.00,,,0.00,VWS V14.01,2013-01-29 09:44:00,
2013-01-29 03:46:00,31.3,29.5,29.41,NNW,338,0.0,0.0,93,0.00,,,0.00,VWS V14.01,2013-01-29 09:46:00,
2013-01-29 03:48:00,31.3,29.5,29.41,NNW,338,0.0,0.0,93,0.00,,,0.00,VWS V14.01,2013-01-29 09:48:00,
2013-01-29 03:50:00,31.3,29.5,29.41,NNW,338,0.0,0.0,93,0.00,,,0.00,VWS V14.01,2013-01-29 09:50:00,
2013-01-29 03:51:00,31.3,29.5,29.41,NNW,338,4.0,4.0,93,0.00,,,0.00,VWS V14.01,2013-01-29 09:51:00,
2013-01-29 03:52:00,31.3,29.5,29.41,NNW,338,0.0,0.0,93,0.00,,,0.00,VWS V14.01,2013-01-29 09:52:00,
2013-01-29 03:54:00,31.3,29.5,29.41,NNW,338,0.0,0.0,93,0.00,,,0.00,VWS V14.01,2013-01-29 09:54:00,
2013-01-29 03:56:00,31.3,29.5,29.41,NNW,338,3.4,3.4,93,0.00,,,0.00,VWS V14.01,2013-01-29 09:56:00,
2013-01-29 03:58:00,31.3,29.5,29.41,NNW,338,0.0,1.1,93,0.00,,,0.00,VWS V14.01,2013-01-29 09:58:00,
2013-01-29 04:00:00,31.3,29.5,29.41,NNW,338,0.0,1.1,93,0.00,,,0.00,VWS V14.01,2013-01-29 10:00:00,
2013-01-29 04:02:00,31.1,29.3,29.41,NW,315,0.0,0.0,93,0.00,,,0.00,VWS V14.01,2013-01-29 10:02:00,
2013-01-29 04:04:00,31.3,29.5,29.41,WSW,248,0.0,1.1,93,0.00,,,0.00,VWS V14.01,2013-01-29 10:04:00,
2013-01-29 04:06:00,31.3,29.5,29.41,WSW,248,2.7,2.7,93,0.00,,,0.00,VWS V14.01,2013-01-29 10:06:00,
2013-01-29 04:08:00,31.3,29.5,29.41,WSW,248,0.0,1.1,93,0.00,,,0.00,VWS V14.01,2013-01-29 10:08:00,
2013-01-29 04:10:00,31.3,29.5,29.44,WNW,292,0.0,1.1,93,0.00,,,0.00,VWS V14.01,2013-01-29 10:10:00,
2013-01-29 04:12:00,31.3,29.5,29.44,West,270,0.0,1.1,93,0.00,,,0.00,VWS V14.01,2013-01-29 10:12:00,
2013-01-29 04:14:00,31.3,29.5,29.44,SW,225,0.0,1.1,93,0.00,,,0.00,VWS V14.01,2013-01-29 10:14:00,
2013-01-29 04:16:00,31.3,29.5,29.44,SW,225,0.0,1.1,93,0.00,,,0.00,VWS V14.01,2013-01-29 10:16:00,
2013-01-29 04:18:00,31.3,29.5,29.44,WNW,292,0.0,1.1,93,0.00,,,0.00,VWS V14.01,2013-01-29 10:18:00,
2013-01-29 04:20:00,31.3,29.5,29.44,NW,315,0.0,1.1,93,0.00,,,0.00,VWS V14.01,2013-01-29 10:20:00,
2013-01-29 04:22:00,31.3,29.5,29.44,NW,315,0.0,1.1,93,0.00,,,0.00,VWS V14.01,2013-01-29 10:22:00,
2013-01-29 04:24:00,31.3,29.5,29.44,NW,315,0.0,1.1,93,0.00,,,0.00,VWS V14.01,2013-01-29 10:24:00,
2013-01-29 04:26:00,31.3,29.5,29.44,NW,315,0.0,1.1,93,0.00,,,0.00,VWS V14.01,2013-01-29 10:26:00,
2013-01-29 04:28:00,31.3,29.5,29.44,NW,315,0.0,1.1,93,0.00,,,0.00,VWS V14.01,2013-01-29 10:28:00,
2013-01-29 04:30:00,31.3,29.5,29.44,NW,315,0.0,1.1,93,0.00,,,0.00,VWS V14.01,2013-01-29 10:30:00,
2013-01-29 04:32:00,31.1,29.3,29.44,NW,315,0.0,1.1,93,0.00,,,0.00,VWS V14.01,2013-01-29 10:32:00,
2013-01-29 04:34:00,31.1,29.3,29.44,NW,315,0.0,1.1,93,0.00,,,0.00,VWS V14.01,2013-01-29 10:34:00,
2013-01-29 04:36:00,31.1,29.3,29.44,NW,315,0.0,1.1,93,0.00,,,0.00,VWS V14.01,2013-01-29 10:36:00,
2013-01-29 04:38:00,31.1,29.3,29.44,NW,315,0.0,0.9,93,0.00,,,0.00,VWS V14.01,2013-01-29 10:38:00,
2013-01-29 04:40:00,31.1,29.3,29.41,NW,315,0.0,0.9,93,0.00,,,0.00,VWS V14.01,2013-01-29 10:40:00,
2013-01-29 04:42:00,31.1,29.3,29.41,NW,315,0.0,0.9,93,0.00,,,0.00,VWS V14.01,2013-01-29 10:42:00,
2013-01-29 04:44:00,31.1,29.3,29.41,NW,315,0.0,0.9,93,0.00,,,0.00,VWS V14.01,2013-01-29 10:44:00,
2013-01-29 04:46:00,31.1,29.3,29.41,NW,315,0.0,0.0,93,0.00,,,0.00,VWS V14.01,2013-01-29 10:46:00,
2013-01-29 04:48:00,31.1,29.3,29.41,NNW,338,0.0,0.0,93,0.00,,,0.00,VWS V14.01,2013-01-29 10:48:00,
2013-01-29 04:50:00,31.1,29.3,29.41,NNW,338,0.0,0.0,93,0.00,,,0.00,VWS V14.01,2013-01-29 10:50:00,
2013-01-29 04:52:00,31.1,29.3,29.41,NNW,338,0.0,0.0,93,0.00,,,0.00,VWS V14.01,2013-01-29 10:52:00,
2013-01-29 04:54:00,31.1,29.3,29.41,NNW,338,0.0,0.0,93,0.00,,,0.00,VWS V14.01,2013-01-29 10:54:00,
2013-01-29 04:56:00,31.1,29.3,29.41,NNW,338,0.0,0.0,93,0.00,,,0.00,VWS V14.01,2013-01-29 10:56:00,
2013-01-29 04:58:00,31.1,29.3,29.41,WNW,292,0.0,0.0,93,0.00,,,0.00,VWS V14.01,2013-01-29 10:58:00,
2013-01-29 05:00:00,31.1,29.3,29.41,WNW,292,0.0,0.0,93,0.00,,,0.00,VWS V14.01,2013-01-29 11:00:00,
2013-01-29 05:02:00,31.1,29.3,29.41,NW,315,0.0,0.0,93,0.00,,,0.00,VWS V14.01,2013-01-29 11:02:00,
2013-01-29 05:04:00,31.1,29.3,29.41,WNW,292,0.0,0.0,93,0.00,,,0.00,VWS V14.01,2013-01-29 11:04:00,
2013-01-29 05:06:00,31.1,29.3,29.41,WNW,292,0.0,0.0,93,0.00,,,0.00,VWS V14.01,2013-01-29 11:06:00,
2013-01-29 05:08:00,31.1,29.3,29.41,NW,315,0.0,0.0,93,0.00,,,0.00,VWS V14.01,2013-01-29 11:08:00,
2013-01-29 05:10:00,31.1,29.3,29.44,WSW,248,0.0,0.0,93,0.00,,,0.00,VWS V14.01,2013-01-29 11:10:00,
2013-01-29 05:12:00,31.1,29.3,29.44,WSW,248,0.0,0.0,93,0.00,,,0.00,VWS V14.01,2013-01-29 11:12:00,
2013-01-29 05:14:00,31.1,29.3,29.44,WSW,248,0.0,0.0,93,0.00,,,0.00,VWS V14.01,2013-01-29 11:14:00,
2013-01-29 05:16:00,31.1,29.3,29.44,WSW,248,0.0,0.0,93,0.00,,,0.00,VWS V14.01,2013-01-29 11:16:00,
2013-01-29 05:18:00,31.3,29.5,29.41,NNW,338,0.0,2.0,93,0.00,,,0.00,VWS V14.01,2013-01-29 11:18:00,
2013-01-29 05:20:00,31.1,29.3,29.44,North,0,0.0,0.0,93,0.00,,,0.00,VWS V14.01,2013-01-29 11:20:00,
2013-01-29 05:22:00,31.1,29.3,29.44,North,0,0.0,0.0,93,0.00,,,0.00,VWS V14.01,2013-01-29 11:22:00,
2013-01-29 05:24:00,31.1,29.3,29.44,NNE,22,0.0,0.0,93,0.00,,,0.00,VWS V14.01,2013-01-29 11:24:00,
2013-01-29 05:26:00,31.3,29.5,29.44,South,180,0.0,0.0,93,0.00,,,0.00,VWS V14.01,2013-01-29 11:26:00,
2013-01-29 05:28:00,31.3,29.5,29.44,WNW,292,3.4,3.4,93,0.00,,,0.00,VWS V14.01,2013-01-29 11:28:00,
2013-01-29 05:30:00,31.3,29.8,29.44,West,270,0.0,1.1,94,0.00,,,0.00,VWS V14.01,2013-01-29 11:30:00,
2013-01-29 05:32:00,31.3,29.8,29.44,West,270,0.0,1.1,94,0.00,,,0.00,VWS V14.01,2013-01-29 11:32:00,
2013-01-29 05:34:00,31.3,29.8,29.44,NW,315,3.4,3.4,94,0.00,,,0.00,VWS V14.01,2013-01-29 11:34:00,
2013-01-29 05:36:00,31.3,29.8,29.44,NW,315,0.0,1.1,94,0.00,,,0.00,VWS V14.01,2013-01-29 11:36:00,
2013-01-29 05:38:00,31.3,29.8,29.44,NW,315,0.0,1.1,94,0.00,,,0.00,VWS V14.01,2013-01-29 11:38:00,
2013-01-29 05:40:00,31.3,29.8,29.41,ENE,68,0.0,1.1,94,0.00,,,0.00,VWS V14.01,2013-01-29 11:40:00,
2013-01-29 05:42:00,31.3,29.8,29.41,North,0,0.0,1.1,94,0.00,,,0.00,VWS V14.01,2013-01-29 11:42:00,
2013-01-29 05:44:00,31.3,29.8,29.41,North,0,0.0,1.1,94,0.00,,,0.00,VWS V14.01,2013-01-29 11:44:00,
2013-01-29 05:46:00,31.3,29.8,29.41,NNW,338,0.0,1.1,94,0.00,,,0.00,VWS V14.01,2013-01-29 11:46:00,
2013-01-29 05:48:00,31.3,29.5,29.41,NNW,338,0.0,1.1,93,0.00,,,0.00,VWS V14.01,2013-01-29 11:48:00,
2013-01-29 05:50:00,31.3,29.5,29.41,NNW,338,0.0,1.1,93,0.00,,,0.00,VWS V14.01,2013-01-29 11:50:00,
2013-01-29 05:52:00,31.3,29.5,29.41,NNW,338,0.0,1.1,93,0.00,,,0.00,VWS V14.01,2013-01-29 11:52:00,
2013-01-29 05:54:00,31.3,29.5,29.41,NNW,338,4.0,4.0,93,0.00,,,0.00,VWS V14.01,2013-01-29 11:54:00,
2013-01-29 05:56:00,31.3,29.5,29.38,NNW,338,0.0,1.3,93,0.00,,,0.00,VWS V14.01,2013-01-29 11:56:00,
2013-01-29 05:58:00,31.1,29.3,29.41,NW,315,4.7,4.7,93,0.00,,,0.00,VWS V14.01,2013-01-29 11:58:00,
2013-01-29 06:00:00,31.3,29.5,29.38,NNW,338,2.7,2.7,93,0.00,,,0.00,VWS V14.01,2013-01-29 12:00:00,
2013-01-29 06:02:00,31.3,29.5,29.38,NW,315,0.0,1.3,93,0.00,,,0.00,VWS V14.01,2013-01-29 12:02:00,
2013-01-29 06:04:00,31.3,29.5,29.38,NW,315,0.0,1.3,93,0.00,,,0.00,VWS V14.01,2013-01-29 12:04:00,
2013-01-29 06:06:00,31.3,29.5,29.38,NW,315,4.0,4.0,93,0.00,,,0.00,VWS V14.01,2013-01-29 12:06:00,
2013-01-29 06:08:00,31.3,29.5,29.38,NNW,338,0.0,1.3,93,0.00,,,0.00,VWS V14.01,2013-01-29 12:08:00,
2013-01-29 06:10:00,31.3,29.5,29.41,North,0,0.0,1.3,93,0.00,,,0.00,VWS V14.01,2013-01-29 12:10:00,
2013-01-29 06:12:00,31.3,29.5,29.41,NW,315,0.0,1.3,93,0.00,,,0.00,VWS V14.01,2013-01-29 12:12:00,
2013-01-29 06:14:00,31.3,29.5,29.41,NNW,338,6.0,6.0,93,0.00,,,0.00,VWS V14.01,2013-01-29 12:14:00,
2013-01-29 06:16:00,31.3,29.5,29.41,NNW,338,0.0,2.0,93,0.00,,,0.00,VWS V14.01,2013-01-29 12:16:00,
2013-01-29 06:18:00,31.3,29.5,29.41,NNW,338,0.0,2.0,93,0.00,,,0.00,VWS V14.01,2013-01-29 12:18:00,
2013-01-29 06:20:00,31.3,29.5,29.41,NNW,338,8.1,8.1,93,0.00,,,0.00,VWS V14.01,2013-01-29 12:20:00,
2013-01-29 06:22:00,31.3,29.5,29.41,NNW,338,4.0,4.0,93,0.00,,,0.00,VWS V14.01,2013-01-29 12:22:00,
2013-01-29 06:24:00,31.3,29.5,29.41,NNW,338,3.4,3.4,93,0.00,,,0.00,VWS V14.01,2013-01-29 12:24:00,
2013-01-29 06:26:00,31.3,29.5,29.38,NNW,338,4.0,4.0,93,0.00,,,0.00,VWS V14.01,2013-01-29 12:26:00,
2013-01-29 06:28:00,31.3,29.5,29.38,NE,45,0.0,2.7,93,0.00,,,0.00,VWS V14.01,2013-01-29 12:28:00,
2013-01-29 06:30:00,31.3,29.5,29.38,NNE,22,2.7,2.7,93,0.00,,,0.00,VWS V14.01,2013-01-29 12:30:00,
2013-01-29 06:32:00,31.3,29.5,29.38,WSW,248,4.0,4.0,93,0.00,,,0.00,VWS V14.01,2013-01-29 12:32:00,
2013-01-29 06:34:00,31.3,29.5,29.38,NW,315,0.0,2.7,93,0.00,,,0.00,VWS V14.01,2013-01-29 12:34:00,
2013-01-29 06:36:00,31.3,29.5,29.38,NW,315,0.0,2.7,93,0.00,,,0.00,VWS V14.01,2013-01-29 12:36:00,
2013-01-29 06:38:00,31.3,29.5,29.38,NNE,22,8.1,8.1,93,0.00,,,0.00,VWS V14.01,2013-01-29 12:38:00,
2013-01-29 06:40:00,31.3,29.5,29.38,NNW,338,0.0,2.7,93,0.00,,,0.00,VWS V14.01,2013-01-29 12:40:00,
2013-01-29 06:42:00,31.1,29.3,29.38,NNW,338,2.7,2.7,93,0.00,,,0.00,VWS V14.01,2013-01-29 12:42:00,
2013-01-29 06:44:00,31.1,29.3,29.38,NNE,22,0.0,2.7,93,0.00,,,0.00,VWS V14.01,2013-01-29 12:44:00,
2013-01-29 06:46:00,31.1,29.3,29.38,North,0,4.0,4.0,93,0.00,,,0.00,VWS V14.01,2013-01-29 12:46:00,
2013-01-29 06:48:00,31.1,29.3,29.38,NNE,22,0.0,2.7,93,0.00,,,0.00,VWS V14.01,2013-01-29 12:48:00,
2013-01-29 06:50:00,31.1,29.3,29.38,NNE,22,0.0,2.7,93,0.00,,,0.00,VWS V14.01,2013-01-29 12:50:00,
2013-01-29 06:52:00,31.1,29.3,29.38,NNE,22,0.0,2.7,93,0.00,,,0.00,VWS V14.01,2013-01-29 12:52:00,
2013-01-29 06:54:00,31.1,29.3,29.38,North,0,0.0,2.7,93,0.00,,,0.00,VWS V14.01,2013-01-29 12:54:00,
2013-01-29 06:56:00,31.1,29.3,29.41,NW,315,3.4,3.4,93,0.00,,,0.00,VWS V14.01,2013-01-29 12:56:00,
2013-01-29 06:58:00,31.1,29.3,29.41,NW,315,4.7,4.7,93,0.00,,,0.00,VWS V14.01,2013-01-29 12:58:00,
2013-01-29 07:00:00,31.1,29.6,29.41,NW,315,0.0,2.7,94,0.00,,,0.00,VWS V14.01,2013-01-29 13:00:00,
2013-01-29 07:02:00,31.1,29.6,29.41,NW,315,0.0,2.7,94,0.00,,,0.00,VWS V14.01,2013-01-29 13:02:00,
2013-01-29 07:04:00,31.3,29.8,29.41,South,180,0.0,2.7,94,0.00,,,0.00,VWS V14.01,2013-01-29 13:04:00,
2013-01-29 07:06:00,32.2,30.9,29.47,NNW,338,6.0,6.0,95,0.00,,,0.00,VWS V14.01,2013-01-29 13:06:00,
2013-01-29 07:08:00,31.3,29.8,29.41,NW,315,2.7,2.7,94,0.00,,,0.00,VWS V14.01,2013-01-29 13:08:00,
2013-01-29 07:10:00,31.3,29.8,29.41,NNW,338,0.0,2.7,94,0.00,,,0.00,VWS V14.01,2013-01-29 13:10:00,
2013-01-29 07:12:00,31.3,29.8,29.41,NNW,338,0.0,2.7,94,0.00,,,0.00,VWS V14.01,2013-01-29 13:12:00,
2013-01-29 07:14:00,31.3,29.8,29.41,NNW,338,0.0,2.7,94,0.00,,,0.00,VWS V14.01,2013-01-29 13:14:00,
2013-01-29 07:16:00,31.5,29.9,29.41,NW,315,8.1,8.1,94,0.00,,,0.00,VWS V14.01,2013-01-29 13:16:00,
2013-01-29 07:18:00,31.5,29.9,29.41,NNW,338,9.4,9.4,94,0.00,,,0.00,VWS V14.01,2013-01-29 13:18:00,
2013-01-29 07:20:00,31.5,29.9,29.41,NNW,338,4.7,4.7,94,0.00,,,0.00,VWS V14.01,2013-01-29 13:20:00,
2013-01-29 07:22:00,31.5,29.9,29.41,WNW,292,4.7,4.7,94,0.00,,,0.00,VWS V14.01,2013-01-29 13:22:00,
2013-01-29 07:24:00,31.6,30.1,29.41,NNW,338,3.4,3.4,94,0.00,,,0.00,VWS V14.01,2013-01-29 13:24:00,
2013-01-29 07:26:00,31.6,30.1,29.41,NNW,338,3.4,3.4,94,0.00,,,0.00,VWS V14.01,2013-01-29 13:26:00,
2013-01-29 07:28:00,31.6,30.1,29.41,NNW,338,0.0,3.1,94,0.00,,,0.00,VWS V14.01,2013-01-29 13:28:00,
2013-01-29 07:30:00,31.6,30.1,29.41,WNW,292,6.0,6.0,94,0.00,,,0.00,VWS V14.01,2013-01-29 13:30:00,
2013-01-29 07:32:00,31.6,30.4,29.41,SW,225,4.7,4.7,95,0.00,,,0.00,VWS V14.01,2013-01-29 13:32:00,
2013-01-29 07:34:00,31.8,30.5,29.41,WNW,292,0.0,3.1,95,0.00,,,0.00,VWS V14.01,2013-01-29 13:34:00,
2013-01-29 07:36:00,31.8,30.5,29.41,NW,315,3.4,3.4,95,0.00,,,0.00,VWS V14.01,2013-01-29 13:36:00,
2013-01-29 07:38:00,31.8,30.5,29.41,NNW,338,6.7,6.7,95,0.00,,,0.00,VWS V14.01,2013-01-29 13:38:00,
2013-01-29 07:40:00,31.8,30.5,29.44,NNW,338,6.0,6.0,95,0.00,,,0.00,VWS V14.01,2013-01-29 13:40:00,
2013-01-29 07:42:00,31.8,30.5,29.44,WNW,292,12.1,12.1,95,0.00,,,0.00,VWS V14.01,2013-01-29 13:42:00,
2013-01-29 07:44:00,31.8,30.5,29.44,NNW,338,4.0,4.0,95,0.00,,,0.00,VWS V14.01,2013-01-29 13:44:00,
2013-01-29 07:46:00,32.0,30.7,29.44,NW,315,6.0,6.0,95,0.00,,,0.00,VWS V14.01,2013-01-29 13:46:00,
2013-01-29 07:48:00,32.0,30.7,29.44,NNW,338,4.0,4.0,95,0.00,,,0.00,VWS V14.01,2013-01-29 13:48:00,
2013-01-29 07:50:00,32.0,30.7,29.44,North,0,10.7,10.7,95,0.00,,,0.00,VWS V14.01,2013-01-29 13:50:00,
2013-01-29 07:52:00,32.0,30.7,29.44,NNW,338,4.0,4.0,95,0.00,,,0.00,VWS V14.01,2013-01-29 13:52:00,
2013-01-29 07:54:00,32.2,30.9,29.44,East,90,10.7,10.7,95,0.00,,,0.00,VWS V14.01,2013-01-29 13:54:00,
2013-01-29 07:56:00,32.2,30.9,29.47,NW,315,0.0,4.0,95,0.00,,,0.00,VWS V14.01,2013-01-29 13:56:00,
2013-01-29 07:58:00,32.2,30.9,29.47,NNW,338,6.7,6.7,95,0.00,,,0.00,VWS V14.01,2013-01-29 13:58:00,
2013-01-29 08:00:00,32.2,30.9,29.47,North,0,9.4,9.4,95,0.00,,,0.00,VWS V14.01,2013-01-29 14:00:00,
2013-01-29 08:02:00,32.2,30.9,29.47,NNW,338,8.1,8.1,95,0.00,,,0.00,VWS V14.01,2013-01-29 14:02:00,
2013-01-29 08:04:00,32.2,30.9,29.47,NNE,22,6.7,6.7,95,0.00,,,0.00,VWS V14.01,2013-01-29 14:04:00,
2013-01-29 08:06:00,32.2,30.9,29.47,NNW,338,6.0,6.0,95,0.00,,,0.00,VWS V14.01,2013-01-29 14:06:00,
2013-01-29 08:08:00,32.2,30.9,29.47,NNW,338,8.7,8.7,95,0.00,,,0.00,VWS V14.01,2013-01-29 14:08:00,
2013-01-29 08:10:00,32.2,30.9,29.47,NNW,338,7.4,7.4,95,0.00,,,0.00,VWS V14.01,2013-01-29 14:10:00,
2013-01-29 08:12:00,32.2,30.9,29.47,NW,315,8.7,8.7,95,0.00,,,0.00,VWS V14.01,2013-01-29 14:12:00,
2013-01-29 08:14:00,32.2,30.9,29.47,NNW,338,6.0,6.0,95,0.00,,,0.00,VWS V14.01,2013-01-29 14:14:00,
2013-01-29 08:16:00,32.2,30.9,29.47,WNW,292,4.0,4.0,95,0.00,,,0.00,VWS V14.01,2013-01-29 14:16:00,
2013-01-29 08:18:00,32.2,30.9,29.47,NNW,338,6.0,6.0,95,0.00,,,0.00,VWS V14.01,2013-01-29 14:18:00,
2013-01-29 08:20:00,32.4,31.1,29.47,NNW,338,8.7,8.7,95,0.00,,,0.00,VWS V14.01,2013-01-29 14:20:00,
2013-01-29 08:22:00,32.4,31.1,29.47,NNE,22,6.7,6.7,95,0.00,,,0.00,VWS V14.01,2013-01-29 14:22:00,
2013-01-29 08:24:00,32.4,31.1,29.47,NNW,338,4.7,4.7,95,0.00,,,0.00,VWS V14.01,2013-01-29 14:24:00,
2013-01-29 08:26:00,32.4,31.1,29.47,NNW,338,4.7,4.7,95,0.00,,,0.00,VWS V14.01,2013-01-29 14:26:00,
2013-01-29 08:28:00,32.4,31.1,29.47,NNW,338,8.1,8.1,95,0.00,,,0.00,VWS V14.01,2013-01-29 14:28:00,
2013-01-29 08:30:00,32.4,31.1,29.47,West,270,11.4,11.4,95,0.00,,,0.00,VWS V14.01,2013-01-29 14:30:00,
2013-01-29 08:32:00,32.4,31.1,29.47,NNW,338,0.0,3.8,95,0.00,,,0.00,VWS V14.01,2013-01-29 14:32:00,
2013-01-29 08:34:00,32.5,31.3,29.47,NW,315,12.1,12.1,95,0.00,,,0.00,VWS V14.01,2013-01-29 14:34:00,
2013-01-29 08:36:00,32.5,31.3,29.47,NNW,338,8.1,8.1,95,0.00,,,0.00,VWS V14.01,2013-01-29 14:36:00,
2013-01-29 08:38:00,32.5,31.3,29.47,NNW,338,7.4,7.4,95,0.00,,,0.00,VWS V14.01,2013-01-29 14:38:00,
2013-01-29 08:40:00,32.5,31.3,29.47,NNW,338,4.0,4.0,95,0.00,,,0.00,VWS V14.01,2013-01-29 14:40:00,
2013-01-29 08:42:00,32.5,31.3,29.47,NNW,338,8.1,8.1,95,0.00,,,0.00,VWS V14.01,2013-01-29 14:42:00,
2013-01-29 08:44:00,32.7,31.5,29.47,NNE,22,2.7,4.0,95,0.00,,,0.00,VWS V14.01,2013-01-29 14:44:00,
2013-01-29 08:46:00,32.7,31.5,29.47,NNW,338,8.1,8.1,95,0.00,,,0.00,VWS V14.01,2013-01-29 14:46:00,
2013-01-29 08:48:00,32.9,31.6,29.47,NW,315,6.7,6.7,95,0.00,,,0.00,VWS V14.01,2013-01-29 14:48:00,
2013-01-29 08:50:00,32.9,31.6,29.47,NNW,338,3.4,4.0,95,0.00,,,0.00,VWS V14.01,2013-01-29 14:50:00,
2013-01-29 08:52:00,32.9,31.4,29.47,NW,315,7.4,7.4,94,0.00,,,0.00,VWS V14.01,2013-01-29 14:52:00,
2013-01-29 08:54:00,32.9,31.4,29.47,NW,315,4.0,4.0,94,0.00,,,0.00,VWS V14.01,2013-01-29 14:54:00,
2013-01-29 08:56:00,32.9,31.4,29.47,NNW,338,11.4,11.4,94,0.00,,,0.00,VWS V14.01,2013-01-29 14:56:00,
2013-01-29 08:58:00,32.9,31.4,29.47,NNW,338,0.0,4.0,94,0.00,,,0.00,VWS V14.01,2013-01-29 14:58:00,
2013-01-29 09:00:00,33.1,31.3,29.47,NNW,338,6.0,6.0,93,0.00,,,0.00,VWS V14.01,2013-01-29 15:00:00,
2013-01-29 09:02:00,33.1,31.3,29.47,WNW,292,7.4,7.4,93,0.00,,,0.00,VWS V14.01,2013-01-29 15:02:00,
2013-01-29 09:04:00,33.1,31.3,29.47,ESE,112,2.7,4.0,93,0.00,,,0.00,VWS V14.01,2013-01-29 15:04:00,
2013-01-29 09:06:00,33.1,31.3,29.47,NNW,338,10.1,10.1,93,0.00,,,0.00,VWS V14.01,2013-01-29 15:06:00,
2013-01-29 09:08:00,33.1,31.0,29.47,NNW,338,4.7,4.7,92,0.00,,,0.00,VWS V14.01,2013-01-29 15:08:00,
2013-01-29 09:10:00,33.1,31.0,29.44,NNE,22,8.7,8.7,92,0.00,,,0.00,VWS V14.01,2013-01-29 15:10:00,
2013-01-29 09:12:00,33.1,30.7,29.44,WNW,292,8.1,8.1,91,0.00,,,0.00,VWS V14.01,2013-01-29 15:12:00,
2013-01-29 09:14:00,33.1,30.7,29.44,WNW,292,8.7,8.7,91,0.00,,,0.00,VWS V14.01,2013-01-29 15:14:00,
2013-01-29 09:16:00,33.3,30.6,29.44,NNW,338,12.1,12.1,90,0.00,,,0.00,VWS V14.01,2013-01-29 15:16:00,
2013-01-29 09:18:00,33.1,30.2,29.44,North,0,10.1,10.1,89,0.00,,,0.00,VWS V14.01,2013-01-29 15:18:00,
2013-01-29 09:20:00,33.1,29.9,29.44,NW,315,11.4,11.4,88,0.00,,,0.00,VWS V14.01,2013-01-29 15:20:00,
2013-01-29 09:22:00,33.1,29.4,29.44,WNW,292,9.4,9.4,86,0.00,,,0.00,VWS V14.01,2013-01-29 15:22:00,
2013-01-29 09:24:00,33.3,29.2,29.44,NW,315,8.7,8.7,85,0.00,,,0.00,VWS V14.01,2013-01-29 15:24:00,
2013-01-29 09:26:00,33.3,29.0,29.47,ENE,68,12.1,12.1,84,0.00,,,0.00,VWS V14.01,2013-01-29 15:26:00,
2013-01-29 09:28:00,33.3,28.1,29.47,NNW,338,14.1,14.1,81,0.00,,,0.00,VWS V14.01,2013-01-29 15:28:00,
2013-01-29 09:30:00,33.4,27.6,29.47,North,0,8.7,8.7,79,0.00,,,0.00,VWS V14.01,2013-01-29 15:30:00,
2013-01-29 09:32:00,33.8,27.7,29.47,NNW,338,8.7,8.7,78,0.00,,,0.00,VWS V14.01,2013-01-29 15:32:00,
2013-01-29 09:34:00,33.8,27.7,29.47,NNE,22,8.1,8.1,78,0.00,,,0.00,VWS V14.01,2013-01-29 15:34:00,
2013-01-29 09:36:00,33.8,27.4,29.47,NNE,22,8.7,8.7,77,0.00,,,0.00,VWS V14.01,2013-01-29 15:36:00,
2013-01-29 09:38:00,34.0,27.5,29.47,North,0,4.7,4.7,77,0.00,,,0.00,VWS V14.01,2013-01-29 15:38:00,
2013-01-29 09:40:00,34.0,26.9,29.47,North,0,6.0,6.0,75,0.00,,,0.00,VWS V14.01,2013-01-29 15:40:00,
2013-01-29 09:42:00,34.0,26.6,29.47,NE,45,6.0,6.0,74,0.00,,,0.00,VWS V14.01,2013-01-29 15:42:00,
2013-01-29 09:44:00,33.8,25.7,29.47,NNW,338,8.7,8.7,72,0.00,,,0.00,VWS V14.01,2013-01-29 15:44:00,
2013-01-29 09:46:00,33.8,25.4,29.47,North,0,10.1,10.1,71,0.00,,,0.00,VWS V14.01,2013-01-29 15:46:00,
2013-01-29 09:48:00,34.2,26.1,29.47,WNW,292,6.0,6.0,72,0.00,,,0.00,VWS V14.01,2013-01-29 15:48:00,
2013-01-29 09:50:00,34.3,25.9,29.47,NNE,22,4.7,4.7,71,0.00,,,0.00,VWS V14.01,2013-01-29 15:50:00,
2013-01-29 09:52:00,34.5,26.4,29.47,NNW,338,4.0,4.7,72,0.00,,,0.00,VWS V14.01,2013-01-29 15:52:00,
2013-01-29 09:54:00,34.5,26.4,29.47,East,90,8.7,8.7,72,0.00,,,0.00,VWS V14.01,2013-01-29 15:54:00,
2013-01-29 09:56:00,34.5,26.4,29.44,North,0,7.4,7.4,72,0.00,,,0.00,VWS V14.01,2013-01-29 15:56:00,
2013-01-29 09:58:00,34.3,26.3,29.44,SSE,158,6.0,6.0,72,0.00,,,0.00,VWS V14.01,2013-01-29 15:58:00,
2013-01-29 10:00:00,34.3,26.3,29.44,NNW,338,9.4,9.4,72,0.00,,,0.00,VWS V14.01,2013-01-29 16:00:00,
2013-01-29 10:02:00,34.5,26.1,29.44,ESE,112,9.4,9.4,71,0.00,,,0.00,VWS V14.01,2013-01-29 16:02:00,
2013-01-29 10:04:00,34.7,26.3,29.44,NNE,22,4.0,4.7,71,0.00,,,0.00,VWS V14.01,2013-01-29 16:04:00,
2013-01-29 10:06:00,35.1,27.0,29.44,NE,45,2.7,4.7,72,0.00,,,0.00,VWS V14.01,2013-01-29 16:06:00,
2013-01-29 10:08:00,35.4,27.6,29.44,NW,315,0.0,3.4,73,0.00,,,0.00,VWS V14.01,2013-01-29 16:08:00,
2013-01-29 10:10:00,35.8,28.0,29.47,NNE,22,7.4,7.4,73,0.00,,,0.00,VWS V14.01,2013-01-29 16:10:00,
2013-01-29 10:12:00,36.5,28.7,29.47,NNW,338,3.4,3.4,73,0.00,,,0.00,VWS V14.01,2013-01-29 16:12:00,
2013-01-29 10:14:00,37.0,29.2,29.47,NNW,338,8.1,8.1,73,0.00,,,0.00,VWS V14.01,2013-01-29 16:14:00,
2013-01-29 10:16:00,36.7,27.8,29.47,NNE,22,6.0,6.0,70,0.00,,,0.00,VWS V14.01,2013-01-29 16:16:00,
2013-01-29 10:18:00,36.3,25.3,29.47,ENE,68,6.7,6.7,64,0.00,,,0.00,VWS V14.01,2013-01-29 16:18:00,
2013-01-29 10:20:00,36.3,24.6,29.47,NE,45,7.4,7.4,62,0.00,,,0.00,VWS V14.01,2013-01-29 16:20:00,
2013-01-29 10:22:00,36.1,24.0,29.47,NNE,22,6.0,6.0,61,0.00,,,0.00,VWS V14.01,2013-01-29 16:22:00,
2013-01-29 10:24:00,36.1,23.6,29.47,NNW,338,7.4,7.4,60,0.00,,,0.00,VWS V14.01,2013-01-29 16:24:00,
2013-01-29 10:26:00,35.8,22.9,29.47,ESE,112,12.1,12.1,59,0.00,,,0.00,VWS V14.01,2013-01-29 16:26:00,
2013-01-29 10:28:00,35.8,22.9,29.47,NNE,22,8.1,8.1,59,0.00,,,0.00,VWS V14.01,2013-01-29 16:28:00,
2013-01-29 10:30:00,35.6,21.9,29.47,NW,315,10.7,10.7,57,0.00,,,0.00,VWS V14.01,2013-01-29 16:30:00,
2013-01-29 10:32:00,35.4,21.7,29.47,NW,315,6.0,6.0,57,0.00,,,0.00,VWS V14.01,2013-01-29 16:32:00,
2013-01-29 10:34:00,35.2,21.5,29.47,NNW,338,9.4,9.4,57,0.00,,,0.00,VWS V14.01,2013-01-29 16:34:00,
2013-01-29 10:36:00,35.1,21.4,29.47,WNW,292,10.1,10.1,57,0.00,,,0.00,VWS V14.01,2013-01-29 16:36:00,
2013-01-29 10:38:00,35.1,21.8,29.47,NW,315,12.8,12.8,58,0.00,,,0.00,VWS V14.01,2013-01-29 16:38:00,
2013-01-29 10:40:00,34.5,21.3,29.47,NNW,338,16.8,16.8,58,0.00,,,0.00,VWS V14.01,2013-01-29 16:40:00,
2013-01-29 10:42:00,34.5,21.3,29.47,NW,315,10.1,10.1,58,0.00,,,0.00,VWS V14.01,2013-01-29 16:42:00,
2013-01-29 10:44:00,34.3,21.5,29.47,WNW,292,8.1,8.1,59,0.00,,,0.00,VWS V14.01,2013-01-29 16:44:00,
2013-01-29 10:46:00,34.3,21.5,29.47,NNW,338,8.7,8.7,59,0.00,,,0.00,VWS V14.01,2013-01-29 16:46:00,
2013-01-29 10:48:00,34.3,21.9,29.47,WNW,292,12.1,12.1,60,0.00,,,0.00,VWS V14.01,2013-01-29 16:48:00,
2013-01-29 10:50:00,34.3,21.9,29.47,ENE,68,12.1,12.1,60,0.00,,,0.00,VWS V14.01,2013-01-29 16:50:00,
2013-01-29 10:52:00,34.3,21.9,29.47,NNW,338,9.4,9.4,60,0.00,,,0.00,VWS V14.01,2013-01-29 16:52:00,
2013-01-29 10:54:00,34.3,21.9,29.47,NNE,22,9.4,9.4,60,0.00,,,0.00,VWS V14.01,2013-01-29 16:54:00,
2013-01-29 10:56:00,34.3,22.3,29.47,NNE,22,7.4,7.4,61,0.00,,,0.00,VWS V14.01,2013-01-29 16:56:00,
2013-01-29 10:58:00,34.3,21.9,29.47,North,0,6.7,6.7,60,0.00,,,0.00,VWS V14.01,2013-01-29 16:58:00,
2013-01-29 11:00:00,34.3,21.9,29.47,NE,45,12.8,12.8,60,0.00,,,0.00,VWS V14.01,2013-01-29 17:00:00,
2013-01-29 11:02:00,34.7,22.2,29.47,NNE,22,10.7,10.7,60,0.00,,,0.00,VWS V14.01,2013-01-29 17:02:00,
2013-01-29 11:04:00,34.7,22.2,29.47,NNE,22,8.1,8.1,60,0.00,,,0.00,VWS V14.01,2013-01-29 17:04:00,
2013-01-29 11:06:00,35.1,22.6,29.47,NNE,22,6.7,6.7,60,0.00,,,0.00,VWS V14.01,2013-01-29 17:06:00,
2013-01-29 11:08:00,35.1,22.2,29.47,NNE,22,9.4,9.4,59,0.00,,,0.00,VWS V14.01,2013-01-29 17:08:00,
2013-01-29 11:10:00,35.1,21.8,29.50,NNE,22,16.8,16.8,58,0.00,,,0.00,VWS V14.01,2013-01-29 17:10:00,
2013-01-29 11:12:00,35.2,21.5,29.50,WNW,292,6.0,6.0,57,0.00,,,0.00,VWS V14.01,2013-01-29 17:12:00,
2013-01-29 11:14:00,35.2,21.5,29.50,NE,45,9.4,9.4,57,0.00,,,0.00,VWS V14.01,2013-01-29 17:14:00,
2013-01-29 11:16:00,35.4,21.7,29.50,North,0,3.4,5.6,57,0.00,,,0.00,VWS V14.01,2013-01-29 17:16:00,
2013-01-29 11:18:00,35.4,21.7,29.50,NNE,22,4.7,5.6,57,0.00,,,0.00,VWS V14.01,2013-01-29 17:18:00,
2013-01-29 11:20:00,36.1,22.4,29.50,NNW,338,2.7,5.6,57,0.00,,,0.00,VWS V14.01,2013-01-29 17:20:00,
2013-01-29 11:22:00,36.1,22.4,29.50,WSW,248,4.7,5.6,57,0.00,,,0.00,VWS V14.01,2013-01-29 17:22:00,
2013-01-29 11:24:00,36.0,21.8,29.50,NNE,22,9.4,9.4,56,0.00,,,0.00,VWS V14.01,2013-01-29 17:24:00,
2013-01-29 11:26:00,36.9,22.2,29.53,North,0,8.7,8.7,55,0.00,,,0.00,VWS V14.01,2013-01-29 17:26:00,
2013-01-29 11:28:00,36.9,21.3,29.53,NE,45,9.4,9.4,53,0.00,,,0.00,VWS V14.01,2013-01-29 17:28:00,
2013-01-29 11:30:00,37.6,21.6,29.53,ENE,68,10.1,10.1,52,0.00,,,0.00,VWS V14.01,2013-01-29 17:30:00,
2013-01-29 11:32:00,38.1,22.1,29.53,NNW,338,7.4,7.4,52,0.00,,,0.00,VWS V14.01,2013-01-29 17:32:00,
2013-01-29 11:34:00,38.5,21.9,29.53,NNW,338,10.1,10.1,51,0.00,,,0.00,VWS V14.01,2013-01-29 17:34:00,
2013-01-29 11:36:00,38.7,22.1,29.53,NE,45,4.7,5.6,51,0.00,,,0.00,VWS V14.01,2013-01-29 17:36:00,
2013-01-29 11:38:00,38.7,21.2,29.53,North,0,9.4,9.4,49,0.00,,,0.00,VWS V14.01,2013-01-29 17:38:00,
2013-01-29 11:40:00,37.8,19.9,29.50,NNW,338,10.7,10.7,48,0.00,,,0.00,VWS V14.01,2013-01-29 17:40:00,
2013-01-29 11:42:00,38.3,20.4,29.50,NW,315,12.8,12.8,48,0.00,,,0.00,VWS V14.01,2013-01-29 17:42:00,
2013-01-29 11:44:00,39.4,21.3,29.50,NNE,22,9.4,9.4,48,0.00,,,0.00,VWS V14.01,2013-01-29 17:44:00,
2013-01-29 11:46:00,39.2,20.7,29.50,NNW,338,4.7,5.6,47,0.00,,,0.00,VWS V14.01,2013-01-29 17:46:00,
2013-01-29 11:48:00,38.3,19.4,29.50,NW,315,8.7,8.7,46,0.00,,,0.00,VWS V14.01,2013-01-29 17:48:00,
2013-01-29 11:50:00,37.9,18.5,29.50,NNE,22,6.0,6.0,45,0.00,,,0.00,VWS V14.01,2013-01-29 17:50:00,
2013-01-29 11:52:00,38.1,19.2,29.50,NNW,338,8.7,8.7,46,0.00,,,0.00,VWS V14.01,2013-01-29 17:52:00,
2013-01-29 11:54:00,38.8,17.7,29.50,North,0,9.4,9.4,42,0.00,,,0.00,VWS V14.01,2013-01-29 17:54:00,
2013-01-29 11:56:00,37.6,19.2,29.50,NW,315,12.1,12.1,47,0.00,,,0.00,VWS V14.01,2013-01-29 17:56:00,
2013-01-29 11:58:00,37.4,19.0,29.50,NNW,338,11.4,11.4,47,0.00,,,0.00,VWS V14.01,2013-01-29 17:58:00,
2013-01-29 12:00:00,37.4,19.0,29.50,NW,315,6.7,6.7,47,0.00,,,0.00,VWS V14.01,2013-01-29 18:00:00,
2013-01-29 12:02:00,37.4,19.5,29.50,North,0,7.4,7.4,48,0.00,,,0.00,VWS V14.01,2013-01-29 18:02:00,
2013-01-29 12:04:00,36.7,18.9,29.50,NNE,22,10.1,10.1,48,0.00,,,0.00,VWS V14.01,2013-01-29 18:04:00,
2013-01-29 12:06:00,37.0,19.7,29.50,NNE,22,12.8,12.8,49,0.00,,,0.00,VWS V14.01,2013-01-29 18:06:00,
2013-01-29 12:08:00,37.0,19.2,29.50,WNW,292,7.4,7.4,48,0.00,,,0.00,VWS V14.01,2013-01-29 18:08:00,
2013-01-29 12:10:00,37.2,19.4,29.53,WNW,292,8.1,8.1,48,0.00,,,0.00,VWS V14.01,2013-01-29 18:10:00,
2013-01-29 12:12:00,37.4,19.0,29.53,NNE,22,9.4,9.4,47,0.00,,,0.00,VWS V14.01,2013-01-29 18:12:00,
2013-01-29 12:14:00,37.6,19.7,29.53,NE,45,10.1,10.1,48,0.00,,,0.00,VWS V14.01,2013-01-29 18:14:00,
2013-01-29 12:16:00,37.6,19.2,29.53,ENE,68,18.8,18.8,47,0.00,,,0.00,VWS V14.01,2013-01-29 18:16:00,
2013-01-29 12:18:00,37.2,18.9,29.53,NNW,338,11.4,11.4,47,0.00,,,0.00,VWS V14.01,2013-01-29 18:18:00,
2013-01-29 12:20:00,37.4,19.0,29.53,NNW,338,9.4,9.4,47,0.00,,,0.00,VWS V14.01,2013-01-29 18:20:00,
2013-01-29 12:22:00,37.9,19.5,29.53,North,0,8.7,8.7,47,0.00,,,0.00,VWS V14.01,2013-01-29 18:22:00,
2013-01-29 12:24:00,38.1,19.7,29.53,NNE,22,8.1,8.1,47,0.00,,,0.00,VWS V14.01,2013-01-29 18:24:00,
2013-01-29 12:26:00,38.1,20.2,29.50,West,270,8.7,8.7,48,0.00,,,0.00,VWS V14.01,2013-01-29 18:26:00,
2013-01-29 12:28:00,38.8,19.8,29.50,NNW,338,7.4,7.4,46,0.00,,,0.00,VWS V14.01,2013-01-29 18:28:00,
2013-01-29 12:30:00,39.0,19.5,29.50,NNE,22,7.4,7.4,45,0.00,,,0.00,VWS V14.01,2013-01-29 18:30:00,
2013-01-29 12:32:00,38.7,18.6,29.50,North,0,7.4,7.4,44,0.00,,,0.00,VWS V14.01,2013-01-29 18:32:00,
2013-01-29 12:34:00,38.5,18.5,29.50,NW,315,13.4,13.4,44,0.00,,,0.00,VWS V14.01,2013-01-29 18:34:00,
2013-01-29 12:36:00,38.3,18.8,29.50,North,0,6.0,6.3,45,0.00,,,0.00,VWS V14.01,2013-01-29 18:36:00,
2013-01-29 12:38:00,38.3,18.8,29.50,North,0,7.4,7.4,45,0.00,,,0.00,VWS V14.01,2013-01-29 18:38:00,
2013-01-29 12:40:00,38.1,18.7,29.50,NNE,22,16.1,16.1,45,0.00,,,0.00,VWS V14.01,2013-01-29 18:40:00,
2013-01-29 12:42:00,37.8,17.8,29.50,NNW,338,10.7,10.7,44,0.00,,,0.00,VWS V14.01,2013-01-29 18:42:00,
2013-01-29 12:44:00,39.7,19.6,29.50,NNW,338,16.1,16.1,44,0.00,,,0.00,VWS V14.01,2013-01-29 18:44:00,
2013-01-29 12:46:00,39.7,18.5,29.50,NNE,22,8.1,8.1,42,0.00,,,0.00,VWS V14.01,2013-01-29 18:46:00,
2013-01-29 12:48:00,39.7,18.5,29.50,NNW,338,12.1,12.1,42,0.00,,,0.00,VWS V14.01,2013-01-29 18:48:00,
2013-01-29 12:50:00,39.6,18.4,29.50,NNE,22,10.1,10.1,42,0.00,,,0.00,VWS V14.01,2013-01-29 18:50:00,
2013-01-29 12:52:00,39.2,18.0,29.50,NNE,22,12.8,12.8,42,0.00,,,0.00,VWS V14.01,2013-01-29 18:52:00,
2013-01-29 12:54:00,38.8,17.7,29.50,North,0,9.4,9.4,42,0.00,,,0.00,VWS V14.01,2013-01-29 18:54:00,
2013-01-29 12:56:00,38.5,17.4,29.47,North,0,9.4,9.4,42,0.00,,,0.00,VWS V14.01,2013-01-29 18:56:00,
2013-01-29 12:58:00,38.5,17.4,29.47,NNE,22,10.1,10.1,42,0.00,,,0.00,VWS V14.01,2013-01-29 18:58:00,
2013-01-29 13:00:00,38.3,17.2,29.47,NNE,22,6.7,6.7,42,0.00,,,0.00,VWS V14.01,2013-01-29 19:00:00,
2013-01-29 13:02:00,38.1,17.1,29.47,NNW,338,10.1,10.1,42,0.00,,,0.00,VWS V14.01,2013-01-29 19:02:00,
2013-01-29 13:04:00,38.3,17.2,29.47,NW,315,9.4,9.4,42,0.00,,,0.00,VWS V14.01,2013-01-29 19:04:00,
2013-01-29 13:06:00,38.5,17.4,29.47,WNW,292,4.0,5.4,42,0.00,,,0.00,VWS V14.01,2013-01-29 19:06:00,
2013-01-29 13:08:00,39.0,18.4,29.47,NW,315,9.4,9.4,43,0.00,,,0.00,VWS V14.01,2013-01-29 19:08:00,
2013-01-29 13:10:00,38.7,17.6,29.47,NE,45,9.4,9.4,42,0.00,,,0.00,VWS V14.01,2013-01-29 19:10:00,
2013-01-29 13:12:00,39.4,17.7,29.47,ENE,68,9.4,9.4,41,0.00,,,0.00,VWS V14.01,2013-01-29 19:12:00,
2013-01-29 13:14:00,39.9,18.1,29.47,North,0,19.5,19.5,41,0.00,,,0.00,VWS V14.01,2013-01-29 19:14:00,
2013-01-29 13:16:00,39.2,16.9,29.47,ENE,68,10.7,10.7,40,0.00,,,0.00,VWS V14.01,2013-01-29 19:16:00,
2013-01-29 13:18:00,38.7,17.0,29.47,NNW,338,9.4,9.4,41,0.00,,,0.00,VWS V14.01,2013-01-29 19:18:00,
2013-01-29 13:20:00,38.8,17.2,29.47,North,0,10.7,10.7,41,0.00,,,0.00,VWS V14.01,2013-01-29 19:20:00,
2013-01-29 13:22:00,39.0,17.3,29.47,SW,225,4.7,6.5,41,0.00,,,0.00,VWS V14.01,2013-01-29 19:22:00,
2013-01-29 13:24:00,38.8,17.2,29.47,NW,315,4.7,6.5,41,0.00,,,0.00,VWS V14.01,2013-01-29 19:24:00,
2013-01-29 13:26:00,39.4,17.7,29.50,NNW,338,6.0,6.5,41,0.00,,,0.00,VWS V14.01,2013-01-29 19:26:00,
2013-01-29 13:28:00,39.2,17.5,29.50,NNW,338,8.1,8.1,41,0.00,,,0.00,VWS V14.01,2013-01-29 19:28:00,
2013-01-29 13:30:00,39.6,17.8,29.50,NNW,338,4.0,6.5,41,0.00,,,0.00,VWS V14.01,2013-01-29 19:30:00,
2013-01-29 13:32:00,40.3,18.5,29.50,NW,315,6.0,6.5,41,0.00,,,0.00,VWS V14.01,2013-01-29 19:32:00,
2013-01-29 13:34:00,40.6,18.2,29.50,NNE,22,11.4,11.4,40,0.00,,,0.00,VWS V14.01,2013-01-29 19:34:00,
2013-01-29 13:36:00,39.9,17.6,29.50,NW,315,10.1,10.1,40,0.00,,,0.00,VWS V14.01,2013-01-29 19:36:00,
2013-01-29 13:38:00,39.9,17.6,29.50,NNE,22,10.1,10.1,40,0.00,,,0.00,VWS V14.01,2013-01-29 19:38:00,
2013-01-29 13:40:00,39.9,17.6,29.50,NNW,338,10.7,10.7,40,0.00,,,0.00,VWS V14.01,2013-01-29 19:40:00,
2013-01-29 13:42:00,38.5,16.3,29.50,NNW,338,7.4,7.4,40,0.00,,,0.00,VWS V14.01,2013-01-29 19:42:00,
2013-01-29 13:44:00,37.8,15.6,29.50,NNE,22,10.7,10.7,40,0.00,,,0.00,VWS V14.01,2013-01-29 19:44:00,
2013-01-29 13:46:00,37.6,15.5,29.50,NNE,22,9.4,9.4,40,0.00,,,0.00,VWS V14.01,2013-01-29 19:46:00,
2013-01-29 13:48:00,37.4,15.3,29.50,NE,45,8.7,8.7,40,0.00,,,0.00,VWS V14.01,2013-01-29 19:48:00,
2013-01-29 13:50:00,37.2,15.7,29.50,North,0,12.1,12.1,41,0.00,,,0.00,VWS V14.01,2013-01-29 19:50:00,
2013-01-29 13:52:00,37.4,15.9,29.50,NNE,22,8.7,8.7,41,0.00,,,0.00,VWS V14.01,2013-01-29 19:52:00,
2013-01-29 13:54:00,37.0,16.1,29.50,NNE,22,8.7,8.7,42,0.00,,,0.00,VWS V14.01,2013-01-29 19:54:00,
2013-01-29 13:56:00,37.4,15.9,29.50,North,0,4.0,4.0,41,0.00,,,0.00,VWS V14.01,2013-01-29 19:56:00,
2013-01-29 13:58:00,37.6,16.6,29.50,NNW,338,6.7,6.7,42,0.00,,,0.00,VWS V14.01,2013-01-29 19:58:00,
2013-01-29 14:00:00,37.6,16.6,29.50,North,0,8.1,8.1,42,0.00,,,0.00,VWS V14.01,2013-01-29 20:00:00,
2013-01-29 14:02:00,37.2,16.3,29.50,NNE,22,16.8,16.8,42,0.00,,,0.00,VWS V14.01,2013-01-29 20:02:00,
2013-01-29 14:04:00,36.7,15.8,29.50,North,0,4.7,5.6,42,0.00,,,0.00,VWS V14.01,2013-01-29 20:04:00,
2013-01-29 14:06:00,36.7,15.8,29.50,NW,315,6.0,6.0,42,0.00,,,0.00,VWS V14.01,2013-01-29 20:06:00,
2013-01-29 14:08:00,37.2,16.3,29.50,NW,315,14.8,14.8,42,0.00,,,0.00,VWS V14.01,2013-01-29 20:08:00,
2013-01-29 14:10:00,36.9,15.9,29.47,NNW,338,10.7,10.7,42,0.00,,,0.00,VWS V14.01,2013-01-29 20:10:00,
2013-01-29 14:12:00,36.7,15.8,29.47,North,0,11.4,11.4,42,0.00,,,0.00,VWS V14.01,2013-01-29 20:12:00,
2013-01-29 14:14:00,36.9,15.9,29.47,North,0,14.8,14.8,42,0.00,,,0.00,VWS V14.01,2013-01-29 20:14:00,
2013-01-29 14:16:00,36.9,15.9,29.47,WNW,292,9.4,9.4,42,0.00,,,0.00,VWS V14.01,2013-01-29 20:16:00,
2013-01-29 14:18:00,37.0,16.1,29.47,NNW,338,11.4,11.4,42,0.00,,,0.00,VWS V14.01,2013-01-29 20:18:00,
2013-01-29 14:20:00,37.4,15.9,29.47,SSE,158,10.1,10.1,41,0.00,,,0.00,VWS V14.01,2013-01-29 20:20:00,
2013-01-29 14:22:00,37.2,15.7,29.47,NNW,338,7.4,7.4,41,0.00,,,0.00,VWS V14.01,2013-01-29 20:22:00,
2013-01-29 14:24:00,37.0,15.5,29.47,NNW,338,8.7,8.7,41,0.00,,,0.00,VWS V14.01,2013-01-29 20:24:00,
2013-01-29 14:26:00,37.0,16.1,29.47,East,90,7.4,7.4,42,0.00,,,0.00,VWS V14.01,2013-01-29 20:26:00,
2013-01-29 14:28:00,36.9,15.4,29.47,NW,315,7.4,7.4,41,0.00,,,0.00,VWS V14.01,2013-01-29 20:28:00,
2013-01-29 14:30:00,36.7,15.2,29.47,WNW,292,12.1,12.1,41,0.00,,,0.00,VWS V14.01,2013-01-29 20:30:00,
2013-01-29 14:32:00,36.5,15.1,29.47,NNE,22,4.7,5.6,41,0.00,,,0.00,VWS V14.01,2013-01-29 20:32:00,
2013-01-29 14:34:00,37.0,16.1,29.47,WNW,292,4.7,5.6,42,0.00,,,0.00,VWS V14.01,2013-01-29 20:34:00,
2013-01-29 14:36:00,36.9,15.9,29.47,North,0,8.7,8.7,42,0.00,,,0.00,VWS V14.01,2013-01-29 20:36:00,
2013-01-29 14:38:00,36.9,15.9,29.47,North,0,7.4,7.4,42,0.00,,,0.00,VWS V14.01,2013-01-29 20:38:00,
2013-01-29 14:40:00,36.7,15.8,29.47,NNW,338,9.4,9.4,42,0.00,,,0.00,VWS V14.01,2013-01-29 20:40:00,
2013-01-29 14:42:00,36.3,14.9,29.47,NNW,338,7.4,7.4,41,0.00,,,0.00,VWS V14.01,2013-01-29 20:42:00,
2013-01-29 14:44:00,36.3,15.4,29.47,NW,315,8.7,8.7,42,0.00,,,0.00,VWS V14.01,2013-01-29 20:44:00,
2013-01-29 14:46:00,36.1,14.7,29.47,NNW,338,7.4,7.4,41,0.00,,,0.00,VWS V14.01,2013-01-29 20:46:00,
2013-01-29 14:48:00,36.3,15.4,29.47,NNW,338,14.8,14.8,42,0.00,,,0.00,VWS V14.01,2013-01-29 20:48:00,
2013-01-29 14:50:00,36.0,14.6,29.47,North,0,8.7,8.7,41,0.00,,,0.00,VWS V14.01,2013-01-29 20:50:00,
2013-01-29 14:52:00,35.8,14.4,29.47,North,0,10.1,10.1,41,0.00,,,0.00,VWS V14.01,2013-01-29 20:52:00,
2013-01-29 14:54:00,35.6,14.8,29.47,NW,315,26.2,26.2,42,0.00,,,0.00,VWS V14.01,2013-01-29 20:54:00,
2013-01-29 14:56:00,35.1,14.3,29.50,NNE,22,8.7,8.7,42,0.00,,,0.00,VWS V14.01,2013-01-29 20:56:00,
2013-01-29 14:58:00,34.9,14.1,29.50,North,0,10.1,10.1,42,0.00,,,0.00,VWS V14.01,2013-01-29 20:58:00,
2013-01-29 15:00:00,35.2,14.5,29.50,NW,315,18.8,18.8,42,0.00,,,0.00,VWS V14.01,2013-01-29 21:00:00,
2013-01-29 15:02:00,35.4,14.6,29.50,North,0,14.8,14.8,42,0.00,,,0.00,VWS V14.01,2013-01-29 21:02:00,
2013-01-29 15:04:00,35.4,14.6,29.50,North,0,10.7,10.7,42,0.00,,,0.00,VWS V14.01,2013-01-29 21:04:00,
2013-01-29 15:06:00,35.6,14.8,29.50,SSW,202,11.4,11.4,42,0.00,,,0.00,VWS V14.01,2013-01-29 21:06:00,
2013-01-29 15:08:00,35.2,14.5,29.50,NNE,22,10.7,10.7,42,0.00,,,0.00,VWS V14.01,2013-01-29 21:08:00,
2013-01-29 15:10:00,35.2,14.5,29.50,NNW,338,18.1,18.1,42,0.00,,,0.00,VWS V14.01,2013-01-29 21:10:00,
2013-01-29 15:12:00,35.2,14.5,29.50,NNE,22,7.4,8.7,42,0.00,,,0.00,VWS V14.01,2013-01-29 21:12:00,
2013-01-29 15:14:00,35.1,14.3,29.50,West,270,14.1,14.1,42,0.00,,,0.00,VWS V14.01,2013-01-29 21:14:00,
2013-01-29 15:16:00,35.1,14.3,29.50,North,0,9.4,9.4,42,0.00,,,0.00,VWS V14.01,2013-01-29 21:16:00,
2013-01-29 15:18:00,35.1,14.3,29.50,North,0,10.7,10.7,42,0.00,,,0.00,VWS V14.01,2013-01-29 21:18:00,
2013-01-29 15:20:00,34.9,14.1,29.50,NW,315,16.8,16.8,42,0.00,,,0.00,VWS V14.01,2013-01-29 21:20:00,
2013-01-29 15:22:00,34.7,14.5,29.50,NW,315,14.8,14.8,43,0.00,,,0.00,VWS V14.01,2013-01-29 21:22:00,
2013-01-29 15:24:00,34.5,14.3,29.50,NW,315,10.1,10.1,43,0.00,,,0.00,VWS V14.01,2013-01-29 21:24:00,
2013-01-29 15:26:00,34.3,14.2,29.53,NNE,22,10.1,10.1,43,0.00,,,0.00,VWS V14.01,2013-01-29 21:26:00,
2013-01-29 15:28:00,34.3,14.2,29.53,NNE,22,7.4,8.7,43,0.00,,,0.00,VWS V14.01,2013-01-29 21:28:00,
2013-01-29 15:30:00,34.2,14.0,29.53,NNW,338,17.5,17.5,43,0.00,,,0.00,VWS V14.01,2013-01-29 21:30:00,
2013-01-29 15:32:00,34.2,14.0,29.53,NE,45,8.1,8.7,43,0.00,,,0.00,VWS V14.01,2013-01-29 21:32:00,
2013-01-29 15:34:00,34.0,13.9,29.53,NNE,22,8.1,8.1,43,0.00,,,0.00,VWS V14.01,2013-01-29 21:34:00,
2013-01-29 15:36:00,33.8,14.2,29.53,NNE,22,8.7,8.7,44,0.00,,,0.00,VWS V14.01,2013-01-29 21:36:00,
2013-01-29 15:38:00,33.8,14.2,29.53,NNE,22,8.7,8.7,44,0.00,,,0.00,VWS V14.01,2013-01-29 21:38:00,
2013-01-29 15:40:00,33.6,14.6,29.53,North,0,9.4,9.4,45,0.00,,,0.00,VWS V14.01,2013-01-29 21:40:00,
2013-01-29 15:42:00,33.4,14.4,29.53,NNW,338,4.7,6.0,45,0.00,,,0.00,VWS V14.01,2013-01-29 21:42:00,
2013-01-29 15:44:00,33.1,14.1,29.53,North,0,9.4,9.4,45,0.00,,,0.00,VWS V14.01,2013-01-29 21:44:00,
2013-01-29 15:46:00,32.9,13.9,29.53,NNW,338,10.1,10.1,45,0.00,,,0.00,VWS V14.01,2013-01-29 21:46:00,
2013-01-29 15:48:00,32.9,14.4,29.53,NNW,338,8.1,8.1,46,0.00,,,0.00,VWS V14.01,2013-01-29 21:48:00,
2013-01-29 15:50:00,32.7,14.2,29.53,NNE,22,12.8,12.8,46,0.00,,,0.00,VWS V14.01,2013-01-29 21:50:00,
2013-01-29 15:52:00,32.7,14.2,29.53,NNW,338,4.7,5.8,46,0.00,,,0.00,VWS V14.01,2013-01-29 21:52:00,
2013-01-29 15:54:00,32.7,14.2,29.53,NNE,22,9.4,9.4,46,0.00,,,0.00,VWS V14.01,2013-01-29 21:54:00,
2013-01-29 15:56:00,32.7,14.2,29.56,NW,315,16.8,16.8,46,0.00,,,0.00,VWS V14.01,2013-01-29 21:56:00,
2013-01-29 15:58:00,32.4,13.9,29.56,North,0,28.2,28.2,46,0.00,,,0.00,VWS V14.01,2013-01-29 21:58:00,
2013-01-29 16:00:00,32.4,13.9,29.56,WNW,292,8.1,9.4,46,0.00,,,0.00,VWS V14.01,2013-01-29 22:00:00,
2013-01-29 16:02:00,32.2,13.2,29.56,NW,315,10.1,10.1,45,0.00,,,0.00,VWS V14.01,2013-01-29 22:02:00,
2013-01-29 16:04:00,32.0,13.6,29.56,ENE,68,11.4,11.4,46,0.00,,,0.00,VWS V14.01,2013-01-29 22:04:00,
2013-01-29 16:06:00,31.8,12.9,29.56,NE,45,8.7,9.4,45,0.00,,,0.00,VWS V14.01,2013-01-29 22:06:00,
2013-01-29 16:08:00,31.8,12.9,29.56,NNE,22,10.7,10.7,45,0.00,,,0.00,VWS V14.01,2013-01-29 22:08:00,
2013-01-29 16:10:00,31.8,12.9,29.50,NNW,338,4.7,9.4,45,0.00,,,0.00,VWS V14.01,2013-01-29 22:10:00,
2013-01-29 16:12:00,31.8,13.4,29.50,NNW,338,22.2,22.2,46,0.00,,,0.00,VWS V14.01,2013-01-29 22:12:00,
2013-01-29 16:14:00,31.5,13.1,29.50,NW,315,9.4,9.4,46,0.00,,,0.00,VWS V14.01,2013-01-29 22:14:00,
2013-01-29 16:16:00,31.3,12.9,29.50,NW,315,8.1,9.4,46,0.00,,,0.00,VWS V14.01,2013-01-29 22:16:00,
2013-01-29 16:18:00,31.1,12.8,29.50,NW,315,7.4,9.4,46,0.00,,,0.00,VWS V14.01,2013-01-29 22:18:00,
2013-01-29 16:20:00,31.1,13.2,29.50,NNW,338,18.1,18.1,47,0.00,,,0.00,VWS V14.01,2013-01-29 22:20:00,
2013-01-29 16:22:00,31.1,13.2,29.50,NNE,22,16.8,16.8,47,0.00,,,0.00,VWS V14.01,2013-01-29 22:22:00,
2013-01-29 16:24:00,30.9,13.1,29.50,North,0,9.4,9.4,47,0.00,,,0.00,VWS V14.01,2013-01-29 22:24:00,
2013-01-29 16:26:00,30.9,13.1,29.50,ENE,68,8.7,9.4,47,0.00,,,0.00,VWS V14.01,2013-01-29 22:26:00,
2013-01-29 16:28:00,30.9,13.1,29.50,North,0,9.4,9.4,47,0.00,,,0.00,VWS V14.01,2013-01-29 22:28:00,
2013-01-29 16:30:00,30.7,13.4,29.50,NNE,22,17.5,17.5,48,0.00,,,0.00,VWS V14.01,2013-01-29 22:30:00,
2013-01-29 16:32:00,30.7,13.4,29.50,NNE,22,10.7,10.7,48,0.00,,,0.00,VWS V14.01,2013-01-29 22:32:00,
2013-01-29 16:34:00,30.7,13.4,29.50,NNE,22,10.1,10.1,48,0.00,,,0.00,VWS V14.01,2013-01-29 22:34:00,
2013-01-29 16:36:00,30.7,13.4,29.50,WSW,248,10.1,10.1,48,0.00,,,0.00,VWS V14.01,2013-01-29 22:36:00,
2013-01-29 16:38:00,30.7,13.9,29.50,NW,315,10.7,10.7,49,0.00,,,0.00,VWS V14.01,2013-01-29 22:38:00,
2013-01-29 16:40:00,30.6,13.7,29.50,North,0,12.8,12.8,49,0.00,,,0.00,VWS V14.01,2013-01-29 22:40:00,
2013-01-29 16:42:00,30.6,13.7,29.50,NNE,22,16.1,16.1,49,0.00,,,0.00,VWS V14.01,2013-01-29 22:42:00,
2013-01-29 16:44:00,30.6,13.7,29.50,North,0,10.7,10.7,49,0.00,,,0.00,VWS V14.01,2013-01-29 22:44:00,
2013-01-29 16:46:00,30.4,13.5,29.50,WNW,292,14.1,14.1,49,0.00,,,0.00,VWS V14.01,2013-01-29 22:46:00,
2013-01-29 16:48:00,30.4,13.5,29.50,NNW,338,8.1,8.1,49,0.00,,,0.00,VWS V14.01,2013-01-29 22:48:00,
2013-01-29 16:50:00,30.4,14.0,29.50,NNW,338,22.2,22.2,50,0.00,,,0.00,VWS V14.01,2013-01-29 22:50:00,
2013-01-29 16:52:00,30.2,13.8,29.50,West,270,4.7,7.4,50,0.00,,,0.00,VWS V14.01,2013-01-29 22:52:00,
2013-01-29 16:54:00,30.2,13.8,29.50,NNW,338,8.7,8.7,50,0.00,,,0.00,VWS V14.01,2013-01-29 22:54:00,
2013-01-29 16:56:00,30.2,14.3,29.53,NW,315,7.4,7.4,51,0.00,,,0.00,VWS V14.01,2013-01-29 22:56:00,
2013-01-29 16:58:00,30.2,14.3,29.53,NNE,22,8.1,8.1,51,0.00,,,0.00,VWS V14.01,2013-01-29 22:58:00,
2013-01-29 17:00:00,30.2,14.3,29.53,NNW,338,12.1,12.1,51,0.00,,,0.00,VWS V14.01,2013-01-29 23:00:00,
2013-01-29 17:02:00,30.2,14.3,29.53,NNW,338,12.8,12.8,51,0.00,,,0.00,VWS V14.01,2013-01-29 23:02:00,
2013-01-29 17:04:00,30.2,14.3,29.53,North,0,8.1,8.1,51,0.00,,,0.00,VWS V14.01,2013-01-29 23:04:00,
2013-01-29 17:06:00,30.0,14.1,29.53,NNW,338,18.8,18.8,51,0.00,,,0.00,VWS V14.01,2013-01-29 23:06:00,
2013-01-29 17:08:00,30.0,14.1,29.53,NE,45,8.1,8.1,51,0.00,,,0.00,VWS V14.01,2013-01-29 23:08:00,
2013-01-29 17:10:00,30.0,14.1,29.53,NNW,338,10.7,10.7,51,0.00,,,0.00,VWS V14.01,2013-01-29 23:10:00,
2013-01-29 17:12:00,29.8,13.9,29.53,NNW,338,12.1,12.1,51,0.00,,,0.00,VWS V14.01,2013-01-29 23:12:00,
2013-01-29 17:14:00,29.8,14.4,29.53,NNW,338,8.1,8.1,52,0.00,,,0.00,VWS V14.01,2013-01-29 23:14:00,
2013-01-29 17:16:00,29.8,14.4,29.53,WNW,292,10.7,10.7,52,0.00,,,0.00,VWS V14.01,2013-01-29 23:16:00,
2013-01-29 17:18:00,29.8,14.4,29.53,North,0,14.8,14.8,52,0.00,,,0.00,VWS V14.01,2013-01-29 23:18:00,
2013-01-29 17:20:00,29.8,14.4,29.53,North,0,10.7,10.7,52,0.00,,,0.00,VWS V14.01,2013-01-29 23:20:00,
2013-01-29 17:22:00,29.8,14.4,29.53,NE,45,7.4,7.4,52,0.00,,,0.00,VWS V14.01,2013-01-29 23:22:00,
2013-01-29 17:24:00,29.8,14.4,29.53,NE,45,6.0,7.4,52,0.00,,,0.00,VWS V14.01,2013-01-29 23:24:00,
2013-01-29 17:26:00,29.7,14.2,29.56,North,0,17.5,17.5,52,0.00,,,0.00,VWS V14.01,2013-01-29 23:26:00,
2013-01-29 17:28:00,29.5,13.6,29.56,NNE,22,10.1,10.1,51,0.00,,,0.00,VWS V14.01,2013-01-29 23:28:00,
2013-01-29 17:30:00,29.5,13.6,29.56,North,0,10.1,10.1,51,0.00,,,0.00,VWS V14.01,2013-01-29 23:30:00,
2013-01-29 17:32:00,29.5,13.6,29.56,NE,45,12.1,12.1,51,0.00,,,0.00,VWS V14.01,2013-01-29 23:32:00,
2013-01-29 17:34:00,29.5,13.6,29.56,NNE,22,18.8,18.8,51,0.00,,,0.00,VWS V14.01,2013-01-29 23:34:00,
2013-01-29 17:36:00,29.3,13.4,29.56,NNW,338,7.4,7.4,51,0.00,,,0.00,VWS V14.01,2013-01-29 23:36:00,
2013-01-29 17:38:00,29.3,13.4,29.56,North,0,10.7,10.7,51,0.00,,,0.00,VWS V14.01,2013-01-29 23:38:00,
2013-01-29 17:40:00,29.3,13.4,29.53,North,0,32.2,32.2,51,0.00,,,0.00,VWS V14.01,2013-01-29 23:40:00,
2013-01-29 17:42:00,28.6,12.3,29.56,NNE,22,12.1,12.1,50,0.00,,,0.00,VWS V14.01,2013-01-29 23:42:00,
2013-01-29 17:44:00,28.6,12.3,29.56,NNE,22,11.4,11.4,50,0.00,,,0.00,VWS V14.01,2013-01-29 23:44:00,
2013-01-29 17:46:00,28.6,12.8,29.56,ENE,68,11.4,11.4,51,0.00,,,0.00,VWS V14.01,2013-01-29 23:46:00,
2013-01-29 17:48:00,28.6,12.3,29.56,North,0,13.4,13.4,50,0.00,,,0.00,VWS V14.01,2013-01-29 23:48:00,
2013-01-29 17:50:00,29.1,13.3,29.53,NNW,338,9.4,10.7,51,0.00,,,0.00,VWS V14.01,2013-01-29 23:50:00,
2013-01-29 17:52:00,29.1,13.3,29.53,NW,315,8.7,10.7,51,0.00,,,0.00,VWS V14.01,2013-01-29 23:52:00,
2013-01-29 17:54:00,29.1,13.3,29.53,NW,315,10.1,10.7,51,0.00,,,0.00,VWS V14.01,2013-01-29 23:54:00,
2013-01-29 17:56:00,29.1,13.3,29.53,NNE,22,8.7,10.7,51,0.00,,,0.00,VWS V14.01,2013-01-29 23:56:00,
2013-01-29 17:58:00,29.1,13.3,29.53,NNE,22,9.4,10.7,51,0.00,,,0.00,VWS V14.01,2013-01-29 23:58:00,
2013-01-29 18:00:00,29.1,13.3,29.53,NW,315,12.1,12.1,51,0.00,,,0.00,VWS V14.01,2013-01-30 00:00:00,
2013-01-29 18:02:00,29.1,13.3,29.53,WNW,292,12.1,12.1,51,0.00,,,0.00,VWS V14.01,2013-01-30 00:02:00,
2013-01-29 18:04:00,29.1,13.3,29.53,NNE,22,12.8,12.8,51,0.00,,,0.00,VWS V14.01,2013-01-30 00:04:00,
2013-01-29 18:06:00,28.9,12.6,29.53,NNE,22,16.1,16.1,50,0.00,,,0.00,VWS V14.01,2013-01-30 00:06:00,
2013-01-29 18:08:00,28.9,13.1,29.53,NNW,338,17.5,17.5,51,0.00,,,0.00,VWS V14.01,2013-01-30 00:08:00,
2013-01-29 18:10:00,28.9,13.1,29.56,NNE,22,12.1,12.1,51,0.00,,,0.00,VWS V14.01,2013-01-30 00:10:00,
2013-01-29 18:12:00,28.9,13.1,29.56,North,0,7.4,10.7,51,0.00,,,0.00,VWS V14.01,2013-01-30 00:12:00,
2013-01-29 18:14:00,28.9,13.1,29.56,NNE,22,18.1,18.1,51,0.00,,,0.00,VWS V14.01,2013-01-30 00:14:00,
2013-01-29 18:16:00,28.9,13.1,29.56,NNE,22,8.7,10.7,51,0.00,,,0.00,VWS V14.01,2013-01-30 00:16:00,
2013-01-29 18:18:00,28.8,12.9,29.56,North,0,12.8,12.8,51,0.00,,,0.00,VWS V14.01,2013-01-30 00:18:00,
2013-01-29 18:20:00,28.8,12.9,29.56,NNW,338,12.1,12.1,51,0.00,,,0.00,VWS V14.01,2013-01-30 00:20:00,
2013-01-29 18:22:00,28.8,12.9,29.56,NE,45,14.1,14.1,51,0.00,,,0.00,VWS V14.01,2013-01-30 00:22:00,
2013-01-29 18:24:00,28.8,12.5,29.56,NNE,22,9.4,10.7,50,0.00,,,0.00,VWS V14.01,2013-01-30 00:24:00,
2013-01-29 18:26:00,28.8,12.5,29.56,NNW,338,9.4,10.7,50,0.00,,,0.00,VWS V14.01,2013-01-30 00:26:00,
2013-01-29 18:28:00,28.6,12.8,29.56,North,0,9.4,9.4,51,0.00,,,0.00,VWS V14.01,2013-01-30 00:28:00,
2013-01-29 18:30:00,28.6,12.8,29.56,NNE,22,10.1,10.1,51,0.00,,,0.00,VWS V14.01,2013-01-30 00:30:00,
2013-01-29 18:32:00,28.6,12.8,29.56,NNE,22,14.8,14.8,51,0.00,,,0.00,VWS V14.01,2013-01-30 00:32:00,
2013-01-29 18:34:00,28.6,12.8,29.56,NNE,22,10.7,10.7,51,0.00,,,0.00,VWS V14.01,2013-01-30 00:34:00,
2013-01-29 18:36:00,28.6,12.3,29.56,NNE,22,7.4,7.4,50,0.00,,,0.00,VWS V14.01,2013-01-30 00:36:00,
2013-01-29 18:38:00,28.6,12.3,29.56,NNE,22,12.1,12.1,50,0.00,,,0.00,VWS V14.01,2013-01-30 00:38:00,
2013-01-29 18:40:00,28.6,12.3,29.56,North,0,10.1,10.1,50,0.00,,,0.00,VWS V14.01,2013-01-30 00:40:00,
2013-01-29 18:42:00,28.6,12.3,29.56,NNE,22,12.1,12.1,50,0.00,,,0.00,VWS V14.01,2013-01-30 00:42:00,
2013-01-29 18:44:00,28.6,12.3,29.56,NNE,22,11.4,11.4,50,0.00,,,0.00,VWS V14.01,2013-01-30 00:44:00,
2013-01-29 18:46:00,28.6,12.8,29.56,ENE,68,11.4,11.4,51,0.00,,,0.00,VWS V14.01,2013-01-30 00:46:00,
2013-01-29 18:48:00,28.6,12.3,29.56,North,0,13.4,13.4,50,0.00,,,0.00,VWS V14.01,2013-01-30 00:48:00,
2013-01-29 18:50:00,28.6,12.8,29.56,NNW,338,12.8,12.8,51,0.00,,,0.00,VWS V14.01,2013-01-30 00:50:00,
2013-01-29 18:52:00,28.6,12.3,29.56,North,0,13.4,13.4,50,0.00,,,0.00,VWS V14.01,2013-01-30 00:52:00,
2013-01-29 18:54:00,28.6,12.8,29.56,NNE,22,12.1,12.1,51,0.00,,,0.00,VWS V14.01,2013-01-30 00:54:00,
2013-01-29 18:56:00,28.6,12.8,29.56,NNE,22,12.8,12.8,51,0.00,,,0.00,VWS V14.01,2013-01-30 00:56:00,
2013-01-29 18:58:00,28.6,12.8,29.56,North,0,14.1,14.1,51,0.00,,,0.00,VWS V14.01,2013-01-30 00:58:00,
2013-01-29 19:00:00,28.6,12.8,29.56,NNW,338,14.1,14.1,51,0.00,,,0.00,VWS V14.01,2013-01-30 01:00:00,
2013-01-29 19:02:00,28.6,12.8,29.56,North,0,9.4,9.4,51,0.00,,,0.00,VWS V14.01,2013-01-30 01:02:00,
2013-01-29 19:04:00,28.6,12.8,29.56,NNW,338,8.7,8.7,51,0.00,,,0.00,VWS V14.01,2013-01-30 01:04:00,
2013-01-29 19:06:00,28.4,12.6,29.56,NNE,22,12.1,12.1,51,0.00,,,0.00,VWS V14.01,2013-01-30 01:06:00,
2013-01-29 19:08:00,28.4,12.6,29.56,NNE,22,8.1,8.1,51,0.00,,,0.00,VWS V14.01,2013-01-30 01:08:00,
2013-01-29 19:10:00,28.4,12.6,29.56,NNW,338,8.7,8.7,51,0.00,,,0.00,VWS V14.01,2013-01-30 01:10:00,
2013-01-29 19:12:00,28.4,12.6,29.56,North,0,10.1,10.1,51,0.00,,,0.00,VWS V14.01,2013-01-30 01:12:00,
2013-01-29 19:14:00,28.4,12.6,29.56,NNE,22,27.5,27.5,51,0.00,,,0.00,VWS V14.01,2013-01-30 01:14:00,
2013-01-29 19:16:00,28.2,12.4,29.56,NNE,22,17.5,17.5,51,0.00,,,0.00,VWS V14.01,2013-01-30 01:16:00,
2013-01-29 19:18:00,28.2,12.4,29.56,NNW,338,10.1,10.1,51,0.00,,,0.00,VWS V14.01,2013-01-30 01:18:00,
2013-01-29 19:20:00,28.2,12.4,29.56,NNW,338,18.1,18.1,51,0.00,,,0.00,VWS V14.01,2013-01-30 01:20:00,
2013-01-29 19:22:00,28.2,12.4,29.56,NE,45,9.4,9.4,51,0.00,,,0.00,VWS V14.01,2013-01-30 01:22:00,
2013-01-29 19:24:00,28.2,12.4,29.56,NNE,22,11.4,11.4,51,0.00,,,0.00,VWS V14.01,2013-01-30 01:24:00,
2013-01-29 19:26:00,28.2,12.4,29.56,North,0,8.7,9.2,51,0.00,,,0.00,VWS V14.01,2013-01-30 01:26:00,
2013-01-29 19:28:00,28.2,12.4,29.56,NW,315,11.4,11.4,51,0.00,,,0.00,VWS V14.01,2013-01-30 01:28:00,
2013-01-29 19:30:00,28.2,12.4,29.56,NNE,22,7.4,9.2,51,0.00,,,0.00,VWS V14.01,2013-01-30 01:30:00,
2013-01-29 19:32:00,28.0,12.3,29.56,NE,45,16.8,16.8,51,0.00,,,0.00,VWS V14.01,2013-01-30 01:32:00,
2013-01-29 19:34:00,28.0,12.3,29.56,NNE,22,10.1,10.1,51,0.00,,,0.00,VWS V14.01,2013-01-30 01:34:00,
2013-01-29 19:36:00,28.0,12.3,29.56,NE,45,14.1,14.1,51,0.00,,,0.00,VWS V14.01,2013-01-30 01:36:00,
2013-01-29 19:38:00,28.0,12.3,29.56,NW,315,11.4,11.4,51,0.00,,,0.00,VWS V14.01,2013-01-30 01:38:00,
2013-01-29 19:40:00,28.0,12.3,29.56,NNE,22,9.4,9.4,51,0.00,,,0.00,VWS V14.01,2013-01-30 01:40:00,
2013-01-29 19:42:00,28.0,12.3,29.56,NW,315,16.1,16.1,51,0.00,,,0.00,VWS V14.01,2013-01-30 01:42:00,
2013-01-29 19:44:00,28.0,12.3,29.56,NNW,338,8.1,9.2,51,0.00,,,0.00,VWS V14.01,2013-01-30 01:44:00,
2013-01-29 19:46:00,28.0,12.7,29.56,NNW,338,8.1,9.2,52,0.00,,,0.00,VWS V14.01,2013-01-30 01:46:00,
2013-01-29 19:48:00,27.3,12.0,29.59,NNW,338,7.4,7.4,52,0.00,,,0.00,VWS V14.01,2013-01-30 01:48:00,
2013-01-29 19:50:00,28.0,12.7,29.56,ENE,68,10.1,10.1,52,0.00,,,0.00,VWS V14.01,2013-01-30 01:50:00,
2013-01-29 19:52:00,28.0,12.7,29.56,NNW,338,7.4,9.2,52,0.00,,,0.00,VWS V14.01,2013-01-30 01:52:00,
2013-01-29 19:54:00,28.0,12.7,29.56,NNE,22,18.1,18.1,52,0.00,,,0.00,VWS V14.01,2013-01-30 01:54:00,
2013-01-29 19:56:00,28.0,12.7,29.56,NNW,338,9.4,9.4,52,0.00,,,0.00,VWS V14.01,2013-01-30 01:56:00,
2013-01-29 19:58:00,28.0,12.7,29.56,North,0,12.8,12.8,52,0.00,,,0.00,VWS V14.01,2013-01-30 01:58:00,
2013-01-29 20:00:00,28.0,12.7,29.56,NNW,338,4.7,6.0,52,0.00,,,0.00,VWS V14.01,2013-01-30 02:00:00,
2013-01-29 20:02:00,28.0,12.7,29.56,NE,45,10.7,10.7,52,0.00,,,0.00,VWS V14.01,2013-01-30 02:02:00,
2013-01-29 20:04:00,28.0,12.7,29.56,NNW,338,12.8,12.8,52,0.00,,,0.00,VWS V14.01,2013-01-30 02:04:00,
2013-01-29 20:06:00,28.0,12.7,29.56,NNW,338,18.8,18.8,52,0.00,,,0.00,VWS V14.01,2013-01-30 02:06:00,
2013-01-29 20:08:00,28.0,12.7,29.56,NNW,338,10.1,10.1,52,0.00,,,0.00,VWS V14.01,2013-01-30 02:08:00,
2013-01-29 20:10:00,27.9,12.5,29.59,NNW,338,10.1,10.1,52,0.00,,,0.00,VWS V14.01,2013-01-30 02:10:00,
2013-01-29 20:12:00,27.9,12.5,29.59,North,0,6.0,6.3,52,0.00,,,0.00,VWS V14.01,2013-01-30 02:12:00,
2013-01-29 20:14:00,27.9,12.5,29.59,NE,45,18.1,18.1,52,0.00,,,0.00,VWS V14.01,2013-01-30 02:14:00,
2013-01-29 20:16:00,27.9,12.5,29.59,NNE,22,21.5,21.5,52,0.00,,,0.00,VWS V14.01,2013-01-30 02:16:00,
2013-01-29 20:18:00,27.0,11.7,29.59,NNE,22,10.1,10.1,52,0.00,,,0.00,VWS V14.01,2013-01-30 02:18:00,
2013-01-29 20:20:00,27.9,12.5,29.59,NNW,338,11.4,11.4,52,0.00,,,0.00,VWS V14.01,2013-01-30 02:20:00,
2013-01-29 20:22:00,27.9,12.5,29.59,NNW,338,9.4,9.4,52,0.00,,,0.00,VWS V14.01,2013-01-30 02:22:00,
2013-01-29 20:24:00,27.7,12.4,29.59,NNE,22,10.7,10.7,52,0.00,,,0.00,VWS V14.01,2013-01-30 02:24:00,
2013-01-29 20:26:00,27.7,12.4,29.59,NNE,22,17.5,17.5,52,0.00,,,0.00,VWS V14.01,2013-01-30 02:26:00,
2013-01-29 20:28:00,27.7,12.4,29.59,NW,315,6.0,7.2,52,0.00,,,0.00,VWS V14.01,2013-01-30 02:28:00,
2013-01-29 20:30:00,27.5,12.2,29.59,NNE,22,10.7,10.7,52,0.00,,,0.00,VWS V14.01,2013-01-30 02:30:00,
2013-01-29 20:32:00,27.5,12.2,29.59,NNW,338,17.5,17.5,52,0.00,,,0.00,VWS V14.01,2013-01-30 02:32:00,
2013-01-29 20:34:00,27.5,12.2,29.59,North,0,11.4,11.4,52,0.00,,,0.00,VWS V14.01,2013-01-30 02:34:00,
2013-01-29 20:36:00,27.5,12.2,29.59,NNE,22,10.1,10.1,52,0.00,,,0.00,VWS V14.01,2013-01-30 02:36:00,
2013-01-29 20:38:00,27.3,12.0,29.59,East,90,8.7,8.7,52,0.00,,,0.00,VWS V14.01,2013-01-30 02:38:00,
2013-01-29 20:40:00,27.3,12.0,29.59,North,0,10.7,10.7,52,0.00,,,0.00,VWS V14.01,2013-01-30 02:40:00,
2013-01-29 20:42:00,27.3,12.0,29.59,NW,315,8.7,8.7,52,0.00,,,0.00,VWS V14.01,2013-01-30 02:42:00,
2013-01-29 20:44:00,27.3,12.5,29.59,NNE,22,16.8,16.8,53,0.00,,,0.00,VWS V14.01,2013-01-30 02:44:00,
2013-01-29 20:46:00,27.3,12.0,29.59,NNW,338,16.1,16.1,52,0.00,,,0.00,VWS V14.01,2013-01-30 02:46:00,
2013-01-29 20:48:00,27.3,12.0,29.59,NNW,338,7.4,7.4,52,0.00,,,0.00,VWS V14.01,2013-01-30 02:48:00,
2013-01-29 20:50:00,27.1,11.9,29.59,North,0,14.1,14.1,52,0.00,,,0.00,VWS V14.01,2013-01-30 02:50:00,
2013-01-29 20:52:00,27.1,12.3,29.59,NW,315,21.5,21.5,53,0.00,,,0.00,VWS V14.01,2013-01-30 02:52:00,
2013-01-29 20:54:00,27.1,12.3,29.59,NNW,338,10.1,10.1,53,0.00,,,0.00,VWS V14.01,2013-01-30 02:54:00,
2013-01-29 20:56:00,27.1,12.3,29.59,NNE,22,8.7,8.7,53,0.00,,,0.00,VWS V14.01,2013-01-30 02:56:00,
2013-01-29 20:58:00,27.1,12.3,29.59,NNE,22,9.4,9.4,53,0.00,,,0.00,VWS V14.01,2013-01-30 02:58:00,
2013-01-29 21:00:00,27.1,12.3,29.59,NNE,22,6.0,7.2,53,0.00,,,0.00,VWS V14.01,2013-01-30 03:00:00,
2013-01-29 21:02:00,27.1,12.3,29.59,NNW,338,6.0,7.2,53,0.00,,,0.00,VWS V14.01,2013-01-30 03:02:00,
2013-01-29 21:04:00,27.1,12.3,29.59,NW,315,4.0,7.2,53,0.00,,,0.00,VWS V14.01,2013-01-30 03:04:00,
2013-01-29 21:06:00,27.1,12.3,29.59,ENE,68,10.1,10.1,53,0.00,,,0.00,VWS V14.01,2013-01-30 03:06:00,
2013-01-29 21:08:00,27.0,12.1,29.59,NNE,22,14.1,14.1,53,0.00,,,0.00,VWS V14.01,2013-01-30 03:08:00,
2013-01-29 21:10:00,27.0,12.1,29.59,North,0,16.1,16.1,53,0.00,,,0.00,VWS V14.01,2013-01-30 03:10:00,
2013-01-29 21:12:00,27.0,11.7,29.59,NNW,338,16.8,16.8,52,0.00,,,0.00,VWS V14.01,2013-01-30 03:12:00,
2013-01-29 21:14:00,27.0,11.7,29.59,NNE,22,10.1,10.1,52,0.00,,,0.00,VWS V14.01,2013-01-30 03:14:00,
2013-01-29 21:16:00,27.0,12.1,29.59,NW,315,8.1,8.1,53,0.00,,,0.00,VWS V14.01,2013-01-30 03:16:00,
2013-01-29 21:18:00,27.0,11.7,29.59,NNE,22,10.1,10.1,52,0.00,,,0.00,VWS V14.01,2013-01-30 03:18:00,
2013-01-29 21:20:00,27.0,11.7,29.59,NNW,338,16.8,16.8,52,0.00,,,0.00,VWS V14.01,2013-01-30 03:20:00,
2013-01-29 21:22:00,27.0,11.7,29.59,NNE,22,8.1,8.1,52,0.00,,,0.00,VWS V14.01,2013-01-30 03:22:00,
2013-01-29 21:24:00,27.0,11.7,29.59,NNE,22,8.7,8.7,52,0.00,,,0.00,VWS V14.01,2013-01-30 03:24:00,
2013-01-29 21:26:00,26.8,11.5,29.56,NNW,338,19.5,19.5,52,0.00,,,0.00,VWS V14.01,2013-01-30 03:26:00,
2013-01-29 21:28:00,26.8,11.5,29.56,NNW,338,12.8,12.8,52,0.00,,,0.00,VWS V14.01,2013-01-30 03:28:00,
2013-01-29 21:30:00,26.8,11.5,29.56,West,270,12.1,12.1,52,0.00,,,0.00,VWS V14.01,2013-01-30 03:30:00,
2013-01-29 21:32:00,26.6,11.8,29.56,NNE,22,12.1,12.1,53,0.00,,,0.00,VWS V14.01,2013-01-30 03:32:00,
2013-01-29 21:34:00,26.6,11.8,29.56,NW,315,10.1,10.1,53,0.00,,,0.00,VWS V14.01,2013-01-30 03:34:00,
2013-01-29 21:36:00,26.6,11.8,29.56,North,0,17.5,17.5,53,0.00,,,0.00,VWS V14.01,2013-01-30 03:36:00,
2013-01-29 21:38:00,26.6,11.8,29.56,ESE,112,29.5,29.5,53,0.00,,,0.00,VWS V14.01,2013-01-30 03:38:00,
2013-01-29 21:40:00,26.6,11.8,29.59,NNE,22,22.2,22.2,53,0.00,,,0.00,VWS V14.01,2013-01-30 03:40:00,
2013-01-29 21:42:00,26.6,11.8,29.59,ENE,68,7.4,9.8,53,0.00,,,0.00,VWS V14.01,2013-01-30 03:42:00,
2013-01-29 21:44:00,25.5,10.8,29.59,NW,315,10.1,10.1,53,0.00,,,0.00,VWS V14.01,2013-01-30 03:44:00,
2013-01-29 21:46:00,26.4,11.6,29.59,WNW,292,8.1,9.8,53,0.00,,,0.00,VWS V14.01,2013-01-30 03:46:00,
2013-01-29 21:48:00,26.4,11.6,29.59,North,0,18.1,18.1,53,0.00,,,0.00,VWS V14.01,2013-01-30 03:48:00,
2013-01-29 21:50:00,26.4,11.6,29.59,ENE,68,11.4,11.4,53,0.00,,,0.00,VWS V14.01,2013-01-30 03:50:00,
2013-01-29 21:52:00,26.4,11.6,29.59,North,0,16.8,16.8,53,0.00,,,0.00,VWS V14.01,2013-01-30 03:52:00,
2013-01-29 21:54:00,26.4,11.6,29.59,NW,315,16.8,16.8,53,0.00,,,0.00,VWS V14.01,2013-01-30 03:54:00,
2013-01-29 21:56:00,26.2,11.4,29.59,North,0,14.1,14.1,53,0.00,,,0.00,VWS V14.01,2013-01-30 03:56:00,
2013-01-29 21:58:00,26.2,11.4,29.59,West,270,21.5,21.5,53,0.00,,,0.00,VWS V14.01,2013-01-30 03:58:00,
2013-01-29 22:00:00,26.2,11.4,29.59,ENE,68,10.7,10.7,53,0.00,,,0.00,VWS V14.01,2013-01-30 04:00:00,
2013-01-29 22:02:00,26.2,11.4,29.59,NW,315,14.8,14.8,53,0.00,,,0.00,VWS V14.01,2013-01-30 04:02:00,
2013-01-29 22:04:00,25.3,10.2,29.59,NNW,338,14.1,14.1,52,0.00,,,0.00,VWS V14.01,2013-01-30 04:04:00,
2013-01-29 22:06:00,26.1,11.3,29.59,North,0,8.7,9.8,53,0.00,,,0.00,VWS V14.01,2013-01-30 04:06:00,
2013-01-29 22:08:00,26.1,11.3,29.59,North,0,10.1,10.1,53,0.00,,,0.00,VWS V14.01,2013-01-30 04:08:00,
2013-01-29 22:10:00,26.1,11.3,29.59,North,0,26.2,26.2,53,0.00,,,0.00,VWS V14.01,2013-01-30 04:10:00,
2013-01-29 22:12:00,26.1,11.3,29.59,NW,315,16.1,16.1,53,0.00,,,0.00,VWS V14.01,2013-01-30 04:12:00,
2013-01-29 22:14:00,26.1,11.3,29.59,NNW,338,20.8,20.8,53,0.00,,,0.00,VWS V14.01,2013-01-30 04:14:00,
2013-01-29 22:16:00,25.9,11.1,29.59,NE,45,16.1,16.1,53,0.00,,,0.00,VWS V14.01,2013-01-30 04:16:00,
2013-01-29 22:18:00,25.9,11.1,29.59,NNE,22,6.0,9.8,53,0.00,,,0.00,VWS V14.01,2013-01-30 04:18:00,
2013-01-29 22:20:00,25.9,11.1,29.59,NNE,22,12.8,12.8,53,0.00,,,0.00,VWS V14.01,2013-01-30 04:20:00,
2013-01-29 22:22:00,25.9,11.1,29.59,NNW,338,9.4,9.4,53,0.00,,,0.00,VWS V14.01,2013-01-30 04:22:00,
2013-01-29 22:24:00,25.7,10.9,29.59,NNW,338,14.1,14.1,53,0.00,,,0.00,VWS V14.01,2013-01-30 04:24:00,
2013-01-29 22:26:00,25.7,10.9,29.59,NNW,338,9.4,9.4,53,0.00,,,0.00,VWS V14.01,2013-01-30 04:26:00,
2013-01-29 22:28:00,25.7,11.4,29.59,NNW,338,16.8,16.8,54,0.00,,,0.00,VWS V14.01,2013-01-30 04:28:00,
2013-01-29 22:30:00,25.7,10.9,29.59,NNE,22,11.4,11.4,53,0.00,,,0.00,VWS V14.01,2013-01-30 04:30:00,
2013-01-29 22:32:00,25.5,10.8,29.59,NE,45,8.7,8.7,53,0.00,,,0.00,VWS V14.01,2013-01-30 04:32:00,
2013-01-29 22:34:00,25.5,10.8,29.59,NNE,22,9.4,9.4,53,0.00,,,0.00,VWS V14.01,2013-01-30 04:34:00,
2013-01-29 22:36:00,25.2,10.0,29.59,NNE,22,12.1,12.1,52,0.00,,,0.00,VWS V14.01,2013-01-30 04:36:00,
2013-01-29 22:38:00,25.5,10.8,29.59,NW,315,9.4,9.4,53,0.00,,,0.00,VWS V14.01,2013-01-30 04:38:00,
2013-01-29 22:40:00,25.5,10.8,29.59,NNE,22,10.7,10.7,53,0.00,,,0.00,VWS V14.01,2013-01-30 04:40:00,
2013-01-29 22:42:00,25.5,10.8,29.59,NNE,22,12.8,12.8,53,0.00,,,0.00,VWS V14.01,2013-01-30 04:42:00,
2013-01-29 22:44:00,25.5,10.8,29.59,NW,315,10.1,10.1,53,0.00,,,0.00,VWS V14.01,2013-01-30 04:44:00,
2013-01-29 22:46:00,25.5,10.8,29.59,ENE,68,10.1,10.1,53,0.00,,,0.00,VWS V14.01,2013-01-30 04:46:00,
2013-01-29 22:48:00,25.3,10.6,29.59,NNE,22,16.8,16.8,53,0.00,,,0.00,VWS V14.01,2013-01-30 04:48:00,
2013-01-29 22:50:00,25.3,10.6,29.59,NW,315,8.1,8.7,53,0.00,,,0.00,VWS V14.01,2013-01-30 04:50:00,
2013-01-29 22:52:00,25.3,10.2,29.59,NNE,22,7.4,7.4,52,0.00,,,0.00,VWS V14.01,2013-01-30 04:52:00,
2013-01-29 22:54:00,25.3,10.2,29.59,NW,315,18.8,18.8,52,0.00,,,0.00,VWS V14.01,2013-01-30 04:54:00,
2013-01-29 22:56:00,25.3,10.2,29.59,North,0,12.8,12.8,52,0.00,,,0.00,VWS V14.01,2013-01-30 04:56:00,
2013-01-29 22:58:00,25.3,10.2,29.59,North,0,14.8,14.8,52,0.00,,,0.00,VWS V14.01,2013-01-30 04:58:00,
2013-01-29 23:00:00,25.3,10.2,29.59,North,0,10.7,10.7,52,0.00,,,0.00,VWS V14.01,2013-01-30 05:00:00,
2013-01-29 23:02:00,25.3,10.2,29.59,WNW,292,11.4,11.4,52,0.00,,,0.00,VWS V14.01,2013-01-30 05:02:00,
2013-01-29 23:04:00,25.3,10.2,29.59,NNW,338,14.1,14.1,52,0.00,,,0.00,VWS V14.01,2013-01-30 05:04:00,
2013-01-29 23:06:00,25.3,10.2,29.59,NNE,22,10.1,10.1,52,0.00,,,0.00,VWS V14.01,2013-01-30 05:06:00,
2013-01-29 23:08:00,25.3,10.2,29.59,WNW,292,10.1,10.1,52,0.00,,,0.00,VWS V14.01,2013-01-30 05:08:00,
2013-01-29 23:10:00,25.3,10.2,29.59,North,0,14.8,14.8,52,0.00,,,0.00,VWS V14.01,2013-01-30 05:10:00,
2013-01-29 23:12:00,25.3,10.2,29.59,NW,315,19.5,19.5,52,0.00,,,0.00,VWS V14.01,2013-01-30 05:12:00,
2013-01-29 23:14:00,25.3,10.2,29.59,NNW,338,9.4,9.4,52,0.00,,,0.00,VWS V14.01,2013-01-30 05:14:00,
2013-01-29 23:16:00,25.3,10.2,29.59,NNW,338,14.1,14.1,52,0.00,,,0.00,VWS V14.01,2013-01-30 05:16:00,
2013-01-29 23:18:00,25.3,10.2,29.59,NNE,22,10.7,10.7,52,0.00,,,0.00,VWS V14.01,2013-01-30 05:18:00,
2013-01-29 23:20:00,25.3,10.2,29.59,NNW,338,21.5,21.5,52,0.00,,,0.00,VWS V14.01,2013-01-30 05:20:00,
2013-01-29 23:22:00,25.3,10.2,29.59,North,0,8.1,8.1,52,0.00,,,0.00,VWS V14.01,2013-01-30 05:22:00,
2013-01-29 23:24:00,25.3,10.2,29.59,NNE,22,12.1,12.1,52,0.00,,,0.00,VWS V14.01,2013-01-30 05:24:00,
2013-01-29 23:26:00,25.3,10.6,29.59,NNE,22,20.8,20.8,53,0.00,,,0.00,VWS V14.01,2013-01-30 05:26:00,
2013-01-29 23:28:00,25.3,10.6,29.59,North,0,16.1,16.1,53,0.00,,,0.00,VWS V14.01,2013-01-30 05:28:00,
2013-01-29 23:30:00,25.2,10.0,29.59,NNE,22,23.5,23.5,52,0.00,,,0.00,VWS V14.01,2013-01-30 05:30:00,
2013-01-29 23:32:00,25.2,10.0,29.59,NNW,338,8.1,8.1,52,0.00,,,0.00,VWS V14.01,2013-01-30 05:32:00,
2013-01-29 23:34:00,25.2,10.0,29.59,NNE,22,16.8,16.8,52,0.00,,,0.00,VWS V14.01,2013-01-30 05:34:00,
2013-01-29 23:36:00,25.2,10.0,29.59,NNE,22,12.1,12.1,52,0.00,,,0.00,VWS V14.01,2013-01-30 05:36:00,
2013-01-29 23:38:00,25.2,10.0,29.59,NNE,22,7.4,7.8,52,0.00,,,0.00,VWS V14.01,2013-01-30 05:38:00,
2013-01-29 23:40:00,25.2,10.4,29.59,NE,45,10.1,10.1,53,0.00,,,0.00,VWS V14.01,2013-01-30 05:40:00,
2013-01-29 23:42:00,25.2,10.4,29.59,NNE,22,18.1,18.1,53,0.00,,,0.00,VWS V14.01,2013-01-30 05:42:00,
2013-01-29 23:44:00,25.2,10.0,29.59,NNE,22,8.1,8.1,52,0.00,,,0.00,VWS V14.01,2013-01-30 05:44:00,
2013-01-29 23:46:00,25.2,10.0,29.59,NNE,22,18.1,18.1,52,0.00,,,0.00,VWS V14.01,2013-01-30 05:46:00,
2013-01-29 23:48:00,25.0,9.9,29.59,NE,45,9.4,9.4,52,0.00,,,0.00,VWS V14.01,2013-01-30 05:48:00,
2013-01-29 23:50:00,25.0,9.9,29.59,NNW,338,12.8,12.8,52,0.00,,,0.00,VWS V14.01,2013-01-30 05:50:00,
2013-01-29 23:52:00,25.0,9.4,29.59,North,0,16.1,16.1,51,0.00,,,0.00,VWS V14.01,2013-01-30 05:52:00,
2013-01-29 23:54:00,25.0,9.4,29.59,NNE,22,10.7,10.7,51,0.00,,,0.00,VWS V14.01,2013-01-30 05:54:00,
2013-01-29 23:56:00,25.0,9.0,29.59,ENE,68,10.7,10.7,50,0.00,,,0.00,VWS V14.01,2013-01-30 05:56:00,
2013-01-29 23:58:00,25.0,9.0,29.59,North,0,19.5,19.5,50,0.00,,,0.00,VWS V14.01,2013-01-30 05:58:00,